Time,TemperatureF,DewpointF,PressureIn,WindDirection,WindDirectionDegrees,WindSpeedMPH,WindSpeedGustMPH,Humidity,HourlyPrecipIn,Conditions,Clouds,dailyrainin,SoftwareType,DateUTC
2013-06-09 00:01:00,72.3,65.4,30.00,WSW,254,1.0,4.0,79,0.00,,,0.00,Wunderground v.1.15,2013-06-09 04:01:00,
2013-06-09 00:07:00,72.4,65.2,30.00,WSW,254,0.0,4.0,78,0.00,,,0.00,Wunderground v.1.15,2013-06-09 04:07:00,
2013-06-09 00:08:00,72.4,65.2,30.00,WSW,254,4.0,4.0,78,0.00,,,0.00,Wunderground v.1.15,2013-06-09 04:08:00,
2013-06-09 00:09:00,72.5,65.2,30.00,WSW,254,0.0,1.0,78,0.00,,,0.00,Wunderground v.1.15,2013-06-09 04:09:00,
2013-06-09 00:10:00,72.5,65.2,30.00,WSW,254,0.0,1.0,78,0.00,,,0.00,Wunderground v.1.15,2013-06-09 04:10:00,
2013-06-09 00:13:00,72.5,65.2,30.00,WSW,253,0.0,1.0,78,0.00,,,0.00,Wunderground v.1.15,2013-06-09 04:13:00,
2013-06-09 00:14:00,72.5,65.2,30.00,WSW,254,0.0,1.0,78,0.00,,,0.00,Wunderground v.1.15,2013-06-09 04:14:00,
2013-06-09 00:15:00,72.5,65.2,30.00,WSW,254,0.0,1.0,78,0.00,,,0.00,Wunderground v.1.15,2013-06-09 04:15:00,
2013-06-09 00:17:00,72.5,65.2,30.00,WSW,253,0.0,1.0,78,0.00,,,0.00,Wunderground v.1.15,2013-06-09 04:17:00,
2013-06-09 00:21:00,72.3,65.1,30.00,WSW,253,2.0,2.0,78,0.00,,,0.00,Wunderground v.1.15,2013-06-09 04:21:00,
2013-06-09 00:23:00,72.3,65.1,30.00,WSW,254,1.0,2.0,78,0.00,,,0.00,Wunderground v.1.15,2013-06-09 04:23:00,
2013-06-09 00:26:00,72.2,65.3,30.00,WSW,254,0.0,2.0,79,0.00,,,0.00,Wunderground v.1.15,2013-06-09 04:26:00,
2013-06-09 00:29:00,72.2,65.3,30.00,WSW,253,0.0,2.0,79,0.00,,,0.00,Wunderground v.1.15,2013-06-09 04:29:00,
2013-06-09 00:31:00,72.2,65.3,30.00,WSW,254,0.0,0.0,79,0.00,,,0.00,Wunderground v.1.15,2013-06-09 04:31:00,
2013-06-09 00:33:00,72.1,65.2,30.00,WSW,254,0.0,0.0,79,0.00,,,0.00,Wunderground v.1.15,2013-06-09 04:33:00,
2013-06-09 00:35:00,72.0,65.1,30.00,WSW,253,0.0,0.0,79,0.00,,,0.00,Wunderground v.1.15,2013-06-09 04:35:00,
2013-06-09 00:36:00,72.0,65.5,30.00,WSW,254,1.0,1.0,80,0.00,,,0.00,Wunderground v.1.15,2013-06-09 04:36:00,
2013-06-09 00:38:00,71.9,65.4,30.00,WSW,254,0.0,1.0,80,0.00,,,0.00,Wunderground v.1.15,2013-06-09 04:38:00,
2013-06-09 00:41:00,71.8,64.9,30.00,WSW,254,1.0,2.0,79,0.00,,,0.00,Wunderground v.1.15,2013-06-09 04:41:00,
2013-06-09 00:42:00,71.8,65.3,30.00,WSW,254,0.0,2.0,80,0.00,,,0.00,Wunderground v.1.15,2013-06-09 04:42:00,
2013-06-09 00:46:00,71.6,65.5,30.00,WSW,253,0.0,2.0,81,0.00,,,0.00,Wunderground v.1.15,2013-06-09 04:46:00,
2013-06-09 00:47:00,71.5,65.0,30.00,WSW,254,0.0,2.0,80,0.00,,,0.00,Wunderground v.1.15,2013-06-09 04:47:00,
2013-06-09 00:48:00,71.5,65.0,30.00,WSW,254,2.0,2.0,80,0.00,,,0.00,Wunderground v.1.15,2013-06-09 04:48:00,
2013-06-09 00:50:00,71.4,64.9,30.00,WSW,253,0.0,1.0,80,0.00,,,0.00,Wunderground v.1.15,2013-06-09 04:50:00,
2013-06-09 00:53:00,71.4,65.3,30.00,WSW,253,0.0,1.0,81,0.00,,,0.00,Wunderground v.1.15,2013-06-09 04:53:00,
2013-06-09 00:54:00,71.4,65.3,30.00,WSW,254,1.0,1.0,81,0.00,,,0.00,Wunderground v.1.15,2013-06-09 04:54:00,
2013-06-09 00:56:00,71.5,65.0,30.00,WSW,254,1.0,2.0,80,0.00,,,0.00,Wunderground v.1.15,2013-06-09 04:56:00,
2013-06-09 01:00:00,71.5,65.4,30.00,WSW,254,0.0,0.0,81,0.00,,,0.00,Wunderground v.1.15,2013-06-09 05:00:00,
2013-06-09 01:03:00,71.6,65.1,30.00,WSW,254,0.0,2.0,80,0.00,,,0.00,Wunderground v.1.15,2013-06-09 05:03:00,
2013-06-09 01:05:00,71.6,65.1,30.00,WSW,254,0.0,2.0,80,0.00,,,0.00,Wunderground v.1.15,2013-06-09 05:05:00,
2013-06-09 01:07:00,71.6,65.1,30.00,WSW,254,0.0,2.0,80,0.00,,,0.00,Wunderground v.1.15,2013-06-09 05:07:00,
2013-06-09 01:10:00,71.5,65.4,30.00,WSW,254,0.0,1.0,81,0.00,,,0.00,Wunderground v.1.15,2013-06-09 05:10:00,
2013-06-09 01:13:00,71.3,65.2,30.00,WSW,254,0.0,1.0,81,0.00,,,0.00,Wunderground v.1.15,2013-06-09 05:13:00,
2013-06-09 01:14:00,71.3,65.2,30.00,WSW,253,0.0,1.0,81,0.00,,,0.00,Wunderground v.1.15,2013-06-09 05:14:00,
2013-06-09 01:15:00,71.3,65.2,30.00,WSW,254,2.0,2.0,81,0.00,,,0.00,Wunderground v.1.15,2013-06-09 05:15:00,
2013-06-09 01:17:00,71.3,65.2,30.00,WSW,254,2.0,2.0,81,0.00,,,0.00,Wunderground v.1.15,2013-06-09 05:17:00,
2013-06-09 01:18:00,71.3,65.2,30.00,WSW,254,0.0,2.0,81,0.00,,,0.00,Wunderground v.1.15,2013-06-09 05:18:00,
2013-06-09 01:20:00,71.2,65.1,30.00,WSW,253,0.0,0.0,81,0.00,,,0.00,Wunderground v.1.15,2013-06-09 05:20:00,
2013-06-09 01:21:00,71.2,65.1,30.00,WSW,254,0.0,0.0,81,0.00,,,0.00,Wunderground v.1.15,2013-06-09 05:21:00,
2013-06-09 01:24:00,71.2,65.1,30.00,WSW,254,0.0,0.0,81,0.00,,,0.00,Wunderground v.1.15,2013-06-09 05:24:00,
2013-06-09 01:25:00,71.2,65.1,30.00,WSW,254,1.0,1.0,81,0.00,,,0.00,Wunderground v.1.15,2013-06-09 05:25:00,
2013-06-09 01:28:00,71.2,65.1,30.00,WSW,254,1.0,1.0,81,0.00,,,0.00,Wunderground v.1.15,2013-06-09 05:28:00,
2013-06-09 01:30:00,71.2,65.1,30.00,WSW,254,0.0,0.0,81,0.00,,,0.00,Wunderground v.1.15,2013-06-09 05:30:00,
2013-06-09 01:32:00,71.1,65.0,30.00,WSW,254,0.0,0.0,81,0.00,,,0.00,Wunderground v.1.15,2013-06-09 05:32:00,
2013-06-09 01:33:00,71.1,65.0,30.00,WSW,254,0.0,0.0,81,0.00,,,0.00,Wunderground v.1.15,2013-06-09 05:33:00,
2013-06-09 01:34:00,71.1,65.0,30.00,WSW,254,0.0,0.0,81,0.00,,,0.00,Wunderground v.1.15,2013-06-09 05:34:00,
2013-06-09 01:36:00,71.1,65.0,30.00,WSW,254,0.0,0.0,81,0.00,,,0.00,Wunderground v.1.15,2013-06-09 05:36:00,
2013-06-09 01:40:00,70.8,65.0,30.00,WSW,253,0.0,0.0,82,0.00,,,0.00,Wunderground v.1.15,2013-06-09 05:40:00,
2013-06-09 01:42:00,70.7,64.9,30.00,WSW,253,0.0,0.0,82,0.00,,,0.00,Wunderground v.1.15,2013-06-09 05:42:00,
2013-06-09 01:43:00,70.7,64.9,30.00,WSW,254,0.0,0.0,82,0.00,,,0.00,Wunderground v.1.15,2013-06-09 05:43:00,
2013-06-09 01:47:00,70.6,65.2,30.00,WSW,254,2.0,2.0,83,0.00,,,0.00,Wunderground v.1.15,2013-06-09 05:47:00,
2013-06-09 01:48:00,70.6,65.2,30.00,WSW,254,1.0,2.0,83,0.00,,,0.00,Wunderground v.1.15,2013-06-09 05:48:00,
2013-06-09 01:49:00,70.6,65.2,29.99,WSW,254,1.0,1.0,83,0.00,,,0.00,Wunderground v.1.15,2013-06-09 05:49:00,
2013-06-09 01:52:00,70.6,65.2,30.00,WSW,254,0.0,1.0,83,0.00,,,0.00,Wunderground v.1.15,2013-06-09 05:52:00,
2013-06-09 01:53:00,70.5,65.1,30.00,WSW,254,0.0,1.0,83,0.00,,,0.00,Wunderground v.1.15,2013-06-09 05:53:00,
2013-06-09 01:54:00,70.5,65.1,29.99,WSW,253,2.0,2.0,83,0.00,,,0.00,Wunderground v.1.15,2013-06-09 05:54:00,
2013-06-09 01:58:00,70.5,64.7,29.99,WSW,254,0.0,2.0,82,0.00,,,0.00,Wunderground v.1.15,2013-06-09 05:58:00,
2013-06-09 01:59:00,70.5,65.1,29.99,WSW,254,0.0,2.0,83,0.00,,,0.00,Wunderground v.1.15,2013-06-09 05:59:00,
2013-06-09 02:00:00,70.5,65.1,29.99,WSW,253,0.0,0.0,83,0.00,,,0.00,Wunderground v.1.15,2013-06-09 06:00:00,
2013-06-09 02:01:00,70.4,65.0,29.99,WSW,253,0.0,0.0,83,0.00,,,0.00,Wunderground v.1.15,2013-06-09 06:01:00,
2013-06-09 02:03:00,70.4,64.6,29.99,WSW,253,3.0,3.0,82,0.00,,,0.00,Wunderground v.1.15,2013-06-09 06:03:00,
2013-06-09 02:04:00,70.5,64.7,29.99,West,259,1.0,5.0,82,0.00,,,0.00,Wunderground v.1.15,2013-06-09 06:04:00,
2013-06-09 02:05:00,70.5,64.7,29.99,West,259,1.0,5.0,82,0.00,,,0.00,Wunderground v.1.15,2013-06-09 06:05:00,
2013-06-09 02:06:00,70.6,64.8,29.99,West,259,0.0,5.0,82,0.00,,,0.00,Wunderground v.1.15,2013-06-09 06:06:00,
2013-06-09 02:08:00,70.7,64.9,29.99,West,259,0.0,5.0,82,0.00,,,0.00,Wunderground v.1.15,2013-06-09 06:08:00,
2013-06-09 02:10:00,70.7,64.9,29.99,West,259,1.0,1.0,82,0.00,,,0.00,Wunderground v.1.15,2013-06-09 06:10:00,
2013-06-09 02:11:00,70.8,65.0,29.99,West,259,0.0,1.0,82,0.00,,,0.00,Wunderground v.1.15,2013-06-09 06:11:00,
2013-06-09 02:13:00,70.8,65.0,29.99,West,259,0.0,1.0,82,0.00,,,0.00,Wunderground v.1.15,2013-06-09 06:13:00,
2013-06-09 02:15:00,70.8,65.0,29.99,West,259,0.0,1.0,82,0.00,,,0.00,Wunderground v.1.15,2013-06-09 06:15:00,
2013-06-09 02:16:00,70.8,65.4,30.00,West,259,0.0,1.0,83,0.00,,,0.00,Wunderground v.1.15,2013-06-09 06:16:00,
2013-06-09 02:17:00,70.8,65.4,30.00,West,259,0.0,1.0,83,0.00,,,0.00,Wunderground v.1.15,2013-06-09 06:17:00,
2013-06-09 02:18:00,70.8,65.4,30.00,West,259,0.0,1.0,83,0.00,,,0.00,Wunderground v.1.15,2013-06-09 06:18:00,
2013-06-09 02:20:00,70.7,64.9,29.99,West,259,0.0,0.0,82,0.00,,,0.00,Wunderground v.1.15,2013-06-09 06:20:00,
2013-06-09 02:22:00,70.6,65.2,30.00,West,259,0.0,0.0,83,0.00,,,0.00,Wunderground v.1.15,2013-06-09 06:22:00,
2013-06-09 02:23:00,70.6,64.8,29.99,West,259,0.0,0.0,82,0.00,,,0.00,Wunderground v.1.15,2013-06-09 06:23:00,
2013-06-09 02:26:00,70.5,65.1,29.99,West,259,0.0,0.0,83,0.00,,,0.00,Wunderground v.1.15,2013-06-09 06:26:00,
2013-06-09 02:27:00,70.4,64.6,29.99,West,259,0.0,0.0,82,0.00,,,0.00,Wunderground v.1.15,2013-06-09 06:27:00,
2013-06-09 02:28:00,70.4,64.6,30.00,West,259,0.0,0.0,82,0.00,,,0.00,Wunderground v.1.15,2013-06-09 06:28:00,
2013-06-09 02:31:00,70.3,64.9,29.99,West,259,0.0,0.0,83,0.00,,,0.00,Wunderground v.1.15,2013-06-09 06:31:00,
2013-06-09 02:32:00,70.3,64.9,30.00,West,259,1.0,1.0,83,0.00,,,0.00,Wunderground v.1.15,2013-06-09 06:32:00,
2013-06-09 02:33:00,70.3,64.9,30.00,West,259,1.0,1.0,83,0.00,,,0.00,Wunderground v.1.15,2013-06-09 06:33:00,
2013-06-09 02:37:00,70.3,64.9,30.00,West,259,0.0,1.0,83,0.00,,,0.00,Wunderground v.1.15,2013-06-09 06:37:00,
2013-06-09 02:38:00,70.3,64.9,30.00,West,259,0.0,1.0,83,0.00,,,0.00,Wunderground v.1.15,2013-06-09 06:38:00,
2013-06-09 02:39:00,70.3,64.9,29.99,West,259,0.0,1.0,83,0.00,,,0.00,Wunderground v.1.15,2013-06-09 06:39:00,
2013-06-09 02:40:00,70.3,64.9,30.00,West,259,0.0,1.0,83,0.00,,,0.00,Wunderground v.1.15,2013-06-09 06:40:00,
2013-06-09 02:42:00,70.3,64.9,30.00,West,259,0.0,1.0,83,0.00,,,0.00,Wunderground v.1.15,2013-06-09 06:42:00,
2013-06-09 02:43:00,70.2,64.8,30.00,West,259,0.0,1.0,83,0.00,,,0.00,Wunderground v.1.15,2013-06-09 06:43:00,
2013-06-09 02:44:00,70.2,64.8,30.00,West,259,0.0,1.0,83,0.00,,,0.00,Wunderground v.1.15,2013-06-09 06:44:00,
2013-06-09 02:45:00,70.2,64.8,30.00,West,259,0.0,1.0,83,0.00,,,0.00,Wunderground v.1.15,2013-06-09 06:45:00,
2013-06-09 02:47:00,70.3,64.9,30.00,West,259,0.0,2.0,83,0.00,,,0.00,Wunderground v.1.15,2013-06-09 06:47:00,
2013-06-09 02:48:00,70.3,64.9,30.00,West,259,0.0,2.0,83,0.00,,,0.00,Wunderground v.1.15,2013-06-09 06:48:00,
2013-06-09 02:49:00,70.3,64.9,30.00,West,259,0.0,2.0,83,0.00,,,0.00,Wunderground v.1.15,2013-06-09 06:49:00,
2013-06-09 02:50:00,70.3,64.9,30.00,West,259,0.0,0.0,83,0.00,,,0.00,Wunderground v.1.15,2013-06-09 06:50:00,
2013-06-09 02:52:00,70.3,64.9,30.00,West,259,0.0,1.0,83,0.00,,,0.00,Wunderground v.1.15,2013-06-09 06:52:00,
2013-06-09 02:53:00,70.3,64.5,30.00,West,259,0.0,2.0,82,0.00,,,0.00,Wunderground v.1.15,2013-06-09 06:53:00,
2013-06-09 02:54:00,70.3,64.9,30.00,West,259,0.0,2.0,83,0.00,,,0.00,Wunderground v.1.15,2013-06-09 06:54:00,
2013-06-09 02:55:00,70.3,64.5,30.00,West,259,0.0,2.0,82,0.00,,,0.00,Wunderground v.1.15,2013-06-09 06:55:00,
2013-06-09 02:56:00,70.3,64.9,30.00,West,259,4.0,4.0,83,0.00,,,0.00,Wunderground v.1.15,2013-06-09 06:56:00,
2013-06-09 02:57:00,70.3,64.9,30.00,West,259,1.0,4.0,83,0.00,,,0.00,Wunderground v.1.15,2013-06-09 06:57:00,
2013-06-09 02:58:00,70.3,64.5,30.00,West,259,1.0,4.0,82,0.00,,,0.00,Wunderground v.1.15,2013-06-09 06:58:00,
2013-06-09 02:59:00,70.3,64.5,30.00,West,259,0.0,4.0,82,0.00,,,0.00,Wunderground v.1.15,2013-06-09 06:59:00,
2013-06-09 03:00:00,70.3,64.9,30.00,West,259,0.0,2.0,83,0.00,,,0.00,Wunderground v.1.15,2013-06-09 07:00:00,
2013-06-09 03:02:00,70.3,64.5,30.00,West,259,1.0,2.0,82,0.00,,,0.00,Wunderground v.1.15,2013-06-09 07:02:00,
2013-06-09 03:04:00,70.3,64.5,30.00,West,259,0.0,3.0,82,0.00,,,0.00,Wunderground v.1.15,2013-06-09 07:04:00,
2013-06-09 03:05:00,70.3,64.5,30.00,West,259,0.0,3.0,82,0.00,,,0.00,Wunderground v.1.15,2013-06-09 07:05:00,
2013-06-09 03:08:00,70.4,65.0,30.00,West,259,0.0,3.0,83,0.00,,,0.00,Wunderground v.1.15,2013-06-09 07:08:00,
2013-06-09 03:09:00,70.4,65.0,30.00,West,259,0.0,0.0,83,0.00,,,0.00,Wunderground v.1.15,2013-06-09 07:09:00,
2013-06-09 03:10:00,70.4,65.0,30.00,West,259,1.0,1.0,83,0.00,,,0.00,Wunderground v.1.15,2013-06-09 07:10:00,
2013-06-09 03:13:00,70.4,65.0,30.00,West,259,0.0,2.0,83,0.00,,,0.00,Wunderground v.1.15,2013-06-09 07:13:00,
2013-06-09 03:14:00,70.3,64.9,30.00,West,259,0.0,2.0,83,0.00,,,0.00,Wunderground v.1.15,2013-06-09 07:14:00,
2013-06-09 03:15:00,70.3,64.9,30.00,West,259,0.0,2.0,83,0.00,,,0.00,Wunderground v.1.15,2013-06-09 07:15:00,
2013-06-09 03:17:00,70.3,65.2,30.00,West,259,0.0,2.0,84,0.00,,,0.00,Wunderground v.1.15,2013-06-09 07:17:00,
2013-06-09 03:18:00,70.3,65.2,30.00,West,259,0.0,2.0,84,0.00,,,0.00,Wunderground v.1.15,2013-06-09 07:18:00,
2013-06-09 03:20:00,70.2,65.1,30.00,West,259,1.0,1.0,84,0.00,,,0.00,Wunderground v.1.15,2013-06-09 07:20:00,
2013-06-09 03:23:00,70.2,64.8,30.00,West,259,0.0,2.0,83,0.00,,,0.00,Wunderground v.1.15,2013-06-09 07:23:00,
2013-06-09 03:25:00,70.2,65.1,30.00,West,259,1.0,2.0,84,0.00,,,0.00,Wunderground v.1.15,2013-06-09 07:25:00,
2013-06-09 03:26:00,70.2,65.1,30.00,West,259,0.0,2.0,84,0.00,,,0.00,Wunderground v.1.15,2013-06-09 07:26:00,
2013-06-09 03:28:00,70.2,64.8,30.00,WSW,254,0.0,3.0,83,0.00,,,0.00,Wunderground v.1.15,2013-06-09 07:28:00,
2013-06-09 03:30:00,70.2,64.8,30.00,WSW,255,0.0,1.0,83,0.00,,,0.00,Wunderground v.1.15,2013-06-09 07:30:00,
2013-06-09 03:31:00,70.3,64.9,30.00,WSW,255,1.0,2.0,83,0.00,,,0.00,Wunderground v.1.15,2013-06-09 07:31:00,
2013-06-09 03:33:00,70.3,64.9,30.00,WSW,255,0.0,3.0,83,0.00,,,0.00,Wunderground v.1.15,2013-06-09 07:33:00,
2013-06-09 03:35:00,70.3,64.9,30.00,WSW,255,0.0,3.0,83,0.00,,,0.00,Wunderground v.1.15,2013-06-09 07:35:00,
2013-06-09 03:36:00,70.3,64.9,30.00,WSW,254,0.0,3.0,83,0.00,,,0.00,Wunderground v.1.15,2013-06-09 07:36:00,
2013-06-09 03:38:00,70.3,64.9,30.00,WSW,254,0.0,3.0,83,0.00,,,0.00,Wunderground v.1.15,2013-06-09 07:38:00,
2013-06-09 03:39:00,70.3,64.9,30.00,WSW,255,0.0,3.0,83,0.00,,,0.00,Wunderground v.1.15,2013-06-09 07:39:00,
2013-06-09 03:41:00,70.3,64.9,30.00,WSW,254,0.0,1.0,83,0.00,,,0.00,Wunderground v.1.15,2013-06-09 07:41:00,
2013-06-09 03:42:00,70.3,64.9,30.00,WSW,254,0.0,1.0,83,0.00,,,0.00,Wunderground v.1.15,2013-06-09 07:42:00,
2013-06-09 03:44:00,70.2,64.8,30.00,WSW,255,0.0,1.0,83,0.00,,,0.00,Wunderground v.1.15,2013-06-09 07:44:00,
2013-06-09 03:46:00,70.2,64.8,30.00,WSW,255,1.0,2.0,83,0.00,,,0.00,Wunderground v.1.15,2013-06-09 07:46:00,
2013-06-09 03:47:00,70.2,64.8,29.99,WSW,254,1.0,2.0,83,0.00,,,0.00,Wunderground v.1.15,2013-06-09 07:47:00,
2013-06-09 03:49:00,70.1,65.0,30.00,WSW,255,0.0,2.0,84,0.00,,,0.00,Wunderground v.1.15,2013-06-09 07:49:00,
2013-06-09 03:51:00,70.1,65.0,30.00,WSW,255,0.0,0.0,84,0.00,,,0.00,Wunderground v.1.15,2013-06-09 07:51:00,
2013-06-09 03:52:00,70.1,65.0,30.00,WSW,255,0.0,0.0,84,0.00,,,0.00,Wunderground v.1.15,2013-06-09 07:52:00,
2013-06-09 03:53:00,70.1,65.0,30.00,WSW,255,0.0,1.0,84,0.00,,,0.00,Wunderground v.1.15,2013-06-09 07:53:00,
2013-06-09 03:54:00,70.0,64.9,30.00,WSW,254,0.0,1.0,84,0.00,,,0.00,Wunderground v.1.15,2013-06-09 07:54:00,
2013-06-09 03:57:00,70.0,64.9,29.99,WSW,254,0.0,1.0,84,0.00,,,0.00,Wunderground v.1.15,2013-06-09 07:57:00,
2013-06-09 03:59:00,69.9,64.8,30.00,WSW,255,0.0,1.0,84,0.00,,,0.00,Wunderground v.1.15,2013-06-09 07:59:00,
2013-06-09 04:02:00,69.9,64.8,29.99,WSW,255,0.0,1.0,84,0.00,,,0.00,Wunderground v.1.15,2013-06-09 08:02:00,
2013-06-09 04:03:00,69.9,64.8,29.99,WSW,254,0.0,1.0,84,0.00,,,0.00,Wunderground v.1.15,2013-06-09 08:03:00,
2013-06-09 04:04:00,70.0,64.9,29.99,WSW,254,1.0,1.0,84,0.00,,,0.00,Wunderground v.1.15,2013-06-09 08:04:00,
2013-06-09 04:08:00,70.1,65.0,29.99,WSW,255,0.0,2.0,84,0.00,,,0.00,Wunderground v.1.15,2013-06-09 08:08:00,
2013-06-09 04:09:00,70.1,65.0,29.99,WSW,255,0.0,0.0,84,0.00,,,0.00,Wunderground v.1.15,2013-06-09 08:09:00,
2013-06-09 04:10:00,70.1,65.0,29.99,WSW,255,0.0,1.0,84,0.00,,,0.00,Wunderground v.1.15,2013-06-09 08:10:00,
2013-06-09 04:13:00,70.2,65.1,29.99,WSW,255,0.0,1.0,84,0.00,,,0.00,Wunderground v.1.15,2013-06-09 08:13:00,
2013-06-09 04:15:00,70.2,65.1,29.99,WSW,255,0.0,1.0,84,0.00,,,0.00,Wunderground v.1.15,2013-06-09 08:15:00,
2013-06-09 04:16:00,70.2,65.1,29.99,WSW,255,1.0,1.0,84,0.00,,,0.00,Wunderground v.1.15,2013-06-09 08:16:00,
2013-06-09 04:18:00,70.2,65.1,29.99,WSW,255,0.0,1.0,84,0.00,,,0.00,Wunderground v.1.15,2013-06-09 08:18:00,
2013-06-09 04:19:00,70.2,65.1,29.99,WSW,255,1.0,1.0,84,0.00,,,0.00,Wunderground v.1.15,2013-06-09 08:19:00,
2013-06-09 04:20:00,70.2,65.1,29.99,WSW,254,1.0,2.0,84,0.00,,,0.00,Wunderground v.1.15,2013-06-09 08:20:00,
2013-06-09 04:22:00,70.2,65.1,29.99,WSW,255,0.0,2.0,84,0.00,,,0.00,Wunderground v.1.15,2013-06-09 08:22:00,
2013-06-09 04:23:00,70.1,65.0,29.99,WSW,255,1.0,2.0,84,0.00,,,0.00,Wunderground v.1.15,2013-06-09 08:23:00,
2013-06-09 04:24:00,70.2,65.1,29.99,WSW,254,1.0,2.0,84,0.00,,,0.00,Wunderground v.1.15,2013-06-09 08:24:00,
2013-06-09 04:25:00,70.2,65.1,29.99,WSW,254,0.0,2.0,84,0.00,,,0.00,Wunderground v.1.15,2013-06-09 08:25:00,
2013-06-09 04:26:00,70.2,65.1,29.99,WSW,254,0.0,2.0,84,0.00,,,0.00,Wunderground v.1.15,2013-06-09 08:26:00,
2013-06-09 04:27:00,70.2,65.1,29.99,WSW,254,0.0,2.0,84,0.00,,,0.00,Wunderground v.1.15,2013-06-09 08:27:00,
2013-06-09 04:29:00,70.2,65.5,30.00,WSW,255,0.0,2.0,85,0.00,,,0.00,Wunderground v.1.15,2013-06-09 08:29:00,
2013-06-09 04:30:00,70.2,65.1,29.99,WSW,254,0.0,0.0,84,0.00,,,0.00,Wunderground v.1.15,2013-06-09 08:30:00,
2013-06-09 04:31:00,70.1,65.0,29.99,WSW,255,0.0,0.0,84,0.00,,,0.00,Wunderground v.1.15,2013-06-09 08:31:00,
2013-06-09 04:32:00,70.2,65.1,29.99,WSW,255,1.0,1.0,84,0.00,,,0.00,Wunderground v.1.15,2013-06-09 08:32:00,
2013-06-09 04:34:00,70.2,65.1,29.99,WSW,255,0.0,2.0,84,0.00,,,0.00,Wunderground v.1.15,2013-06-09 08:34:00,
2013-06-09 04:35:00,70.2,65.5,29.99,WSW,254,0.0,2.0,85,0.00,,,0.00,Wunderground v.1.15,2013-06-09 08:35:00,
2013-06-09 04:36:00,70.2,65.5,29.99,WSW,254,0.0,2.0,85,0.00,,,0.00,Wunderground v.1.15,2013-06-09 08:36:00,
2013-06-09 04:37:00,70.3,65.2,29.99,WSW,254,1.0,2.0,84,0.00,,,0.00,Wunderground v.1.15,2013-06-09 08:37:00,
2013-06-09 04:39:00,70.3,65.6,29.99,WSW,255,0.0,0.0,85,0.00,,,0.00,Wunderground v.1.15,2013-06-09 08:39:00,
2013-06-09 04:41:00,70.3,65.6,29.99,WSW,253,1.0,4.0,85,0.00,,,0.00,Wunderground v.1.15,2013-06-09 08:41:00,
2013-06-09 04:42:00,70.3,65.6,29.99,SW,217,2.0,6.0,85,0.00,,,0.00,Wunderground v.1.15,2013-06-09 08:42:00,
2013-06-09 04:45:00,70.6,65.5,29.99,SW,217,4.0,6.0,84,0.00,,,0.00,Wunderground v.1.15,2013-06-09 08:45:00,
2013-06-09 04:46:00,70.6,65.5,29.99,SW,217,1.0,6.0,84,0.00,,,0.00,Wunderground v.1.15,2013-06-09 08:46:00,
2013-06-09 04:47:00,70.8,65.7,29.99,SW,217,3.0,6.0,84,0.00,,,0.00,Wunderground v.1.15,2013-06-09 08:47:00,
2013-06-09 04:48:00,70.8,65.7,29.99,SW,217,1.0,6.0,84,0.00,,,0.00,Wunderground v.1.15,2013-06-09 08:48:00,
2013-06-09 04:50:00,71.0,65.6,29.99,SW,217,4.0,4.0,83,0.00,,,0.00,Wunderground v.1.15,2013-06-09 08:50:00,
2013-06-09 04:51:00,71.0,65.6,29.99,SW,217,1.0,4.0,83,0.00,,,0.00,Wunderground v.1.15,2013-06-09 08:51:00,
2013-06-09 04:52:00,71.1,65.7,29.99,SW,217,3.0,4.0,83,0.00,,,0.00,Wunderground v.1.15,2013-06-09 08:52:00,
2013-06-09 04:53:00,71.1,66.0,29.99,SW,217,2.0,4.0,84,0.00,,,0.00,Wunderground v.1.15,2013-06-09 08:53:00,
2013-06-09 04:55:00,71.2,65.8,29.99,SW,217,1.0,4.0,83,0.00,,,0.00,Wunderground v.1.15,2013-06-09 08:55:00,
2013-06-09 04:56:00,71.2,65.8,29.99,SW,217,4.0,4.0,83,0.00,,,0.00,Wunderground v.1.15,2013-06-09 08:56:00,
2013-06-09 04:57:00,71.2,65.8,29.99,SW,217,3.0,4.0,83,0.00,,,0.00,Wunderground v.1.15,2013-06-09 08:57:00,
2013-06-09 04:58:00,71.2,65.8,29.99,SW,217,3.0,4.0,83,0.00,,,0.00,Wunderground v.1.15,2013-06-09 08:58:00,
2013-06-09 05:00:00,71.3,65.9,29.99,SW,217,3.0,4.0,83,0.00,,,0.00,Wunderground v.1.15,2013-06-09 09:00:00,
2013-06-09 05:01:00,71.3,65.9,29.99,SW,217,3.0,4.0,83,0.00,,,0.00,Wunderground v.1.15,2013-06-09 09:01:00,
2013-06-09 05:02:00,71.5,66.1,29.99,SW,217,1.0,6.0,83,0.00,,,0.00,Wunderground v.1.15,2013-06-09 09:02:00,
2013-06-09 05:03:00,71.6,65.8,29.99,SW,217,2.0,6.0,82,0.00,,,0.00,Wunderground v.1.15,2013-06-09 09:03:00,
2013-06-09 05:04:00,71.6,65.8,29.99,SW,217,2.0,6.0,82,0.00,,,0.00,Wunderground v.1.15,2013-06-09 09:04:00,
2013-06-09 05:05:00,71.7,65.9,29.99,SW,217,1.0,6.0,82,0.00,,,0.00,Wunderground v.1.15,2013-06-09 09:05:00,
2013-06-09 05:06:00,71.8,66.0,29.99,SW,217,1.0,6.0,82,0.00,,,0.00,Wunderground v.1.15,2013-06-09 09:06:00,
2013-06-09 05:08:00,71.9,66.1,29.99,SW,217,1.0,6.0,82,0.00,,,0.00,Wunderground v.1.15,2013-06-09 09:08:00,
2013-06-09 05:09:00,72.0,66.2,29.99,SW,217,1.0,6.0,82,0.00,,,0.00,Wunderground v.1.15,2013-06-09 09:09:00,
2013-06-09 05:10:00,72.1,66.3,29.99,SW,217,3.0,3.0,82,0.00,,,0.00,Wunderground v.1.15,2013-06-09 09:10:00,
2013-06-09 05:12:00,72.2,66.0,29.99,SW,217,2.0,3.0,81,0.00,,,0.00,Wunderground v.1.15,2013-06-09 09:12:00,
2013-06-09 05:13:00,72.2,66.0,29.99,SW,217,2.0,3.0,81,0.00,,,0.00,Wunderground v.1.15,2013-06-09 09:13:00,
2013-06-09 05:14:00,72.3,66.1,29.99,SW,217,2.0,3.0,81,0.00,,,0.00,Wunderground v.1.15,2013-06-09 09:14:00,
2013-06-09 05:16:00,72.3,66.1,29.99,SW,217,0.0,3.0,81,0.00,,,0.00,Wunderground v.1.15,2013-06-09 09:16:00,
2013-06-09 05:17:00,72.4,66.2,29.99,SW,217,0.0,3.0,81,0.00,,,0.00,Wunderground v.1.15,2013-06-09 09:17:00,
2013-06-09 05:19:00,72.4,66.2,29.99,SW,217,3.0,3.0,81,0.00,,,0.00,Wunderground v.1.15,2013-06-09 09:19:00,
2013-06-09 05:20:00,72.4,66.2,29.99,SW,217,0.0,2.0,81,0.00,,,0.00,Wunderground v.1.15,2013-06-09 09:20:00,
2013-06-09 05:21:00,72.4,66.2,29.99,SW,217,1.0,2.0,81,0.00,,,0.00,Wunderground v.1.15,2013-06-09 09:21:00,
2013-06-09 05:22:00,72.4,66.2,29.99,SW,217,0.0,2.0,81,0.00,,,0.00,Wunderground v.1.15,2013-06-09 09:22:00,
2013-06-09 05:24:00,72.4,66.2,29.99,SW,217,0.0,2.0,81,0.00,,,0.00,Wunderground v.1.15,2013-06-09 09:24:00,
2013-06-09 05:25:00,72.3,66.1,29.99,SW,217,1.0,2.0,81,0.00,,,0.00,Wunderground v.1.15,2013-06-09 09:25:00,
2013-06-09 05:26:00,72.3,66.1,29.99,SW,217,0.0,2.0,81,0.00,,,0.00,Wunderground v.1.15,2013-06-09 09:26:00,
2013-06-09 05:27:00,72.3,66.1,29.99,SW,217,1.0,3.0,81,0.00,,,0.00,Wunderground v.1.15,2013-06-09 09:27:00,
2013-06-09 05:29:00,72.3,66.1,29.99,SW,217,2.0,2.0,81,0.00,,,0.00,Wunderground v.1.15,2013-06-09 09:29:00,
2013-06-09 05:30:00,72.3,66.1,29.99,SW,217,3.0,3.0,81,0.00,,,0.00,Wunderground v.1.15,2013-06-09 09:30:00,
2013-06-09 05:31:00,72.3,66.5,29.99,SW,217,0.0,4.0,82,0.00,,,0.00,Wunderground v.1.15,2013-06-09 09:31:00,
2013-06-09 05:32:00,72.2,66.4,29.99,SW,217,1.0,4.0,82,0.00,,,0.00,Wunderground v.1.15,2013-06-09 09:32:00,
2013-06-09 05:35:00,72.1,66.3,30.00,SW,217,1.0,4.0,82,0.00,,,0.00,Wunderground v.1.15,2013-06-09 09:35:00,
2013-06-09 05:36:00,72.1,66.3,30.00,SW,217,2.0,4.0,82,0.00,,,0.00,Wunderground v.1.15,2013-06-09 09:36:00,
2013-06-09 05:37:00,72.0,66.2,30.00,SW,217,1.0,4.0,82,0.00,,,0.00,Wunderground v.1.15,2013-06-09 09:37:00,
2013-06-09 05:40:00,71.9,66.1,30.00,SW,217,0.0,1.0,82,0.00,,,0.00,Wunderground v.1.15,2013-06-09 09:40:00,
2013-06-09 05:41:00,71.9,66.1,30.00,SW,217,0.0,1.0,82,0.00,,,0.00,Wunderground v.1.15,2013-06-09 09:41:00,
2013-06-09 05:42:00,71.9,66.1,30.00,SW,217,0.0,1.0,82,0.00,,,0.00,Wunderground v.1.15,2013-06-09 09:42:00,
2013-06-09 05:43:00,71.9,66.1,30.00,SW,217,0.0,1.0,82,0.00,,,0.00,Wunderground v.1.15,2013-06-09 09:43:00,
2013-06-09 05:45:00,71.8,66.0,30.00,SW,217,0.0,1.0,82,0.00,,,0.00,Wunderground v.1.15,2013-06-09 09:45:00,
2013-06-09 05:47:00,71.8,66.0,30.00,SW,217,0.0,1.0,82,0.00,,,0.00,Wunderground v.1.15,2013-06-09 09:47:00,
2013-06-09 05:48:00,71.8,66.0,30.00,SW,217,0.0,1.0,82,0.00,,,0.00,Wunderground v.1.15,2013-06-09 09:48:00,
2013-06-09 05:50:00,71.8,66.0,30.00,SW,217,0.0,0.0,82,0.00,,,0.00,Wunderground v.1.15,2013-06-09 09:50:00,
2013-06-09 05:52:00,71.7,65.9,30.00,SW,217,0.0,1.0,82,0.00,,,0.00,Wunderground v.1.15,2013-06-09 09:52:00,
2013-06-09 05:53:00,71.7,66.3,30.00,SW,217,0.0,1.0,83,0.00,,,0.00,Wunderground v.1.15,2013-06-09 09:53:00,
2013-06-09 05:56:00,71.7,66.3,30.00,SW,217,1.0,1.0,83,0.00,,,0.00,Wunderground v.1.15,2013-06-09 09:56:00,
2013-06-09 05:57:00,71.8,66.0,30.00,SW,217,0.0,1.0,82,0.00,,,0.00,Wunderground v.1.15,2013-06-09 09:57:00,
2013-06-09 05:58:00,71.8,66.4,30.00,SW,217,0.0,1.0,83,0.00,,,0.00,Wunderground v.1.15,2013-06-09 09:58:00,
2013-06-09 06:02:00,71.9,66.1,30.00,SW,217,0.0,0.0,82,0.00,,,0.00,Wunderground v.1.15,2013-06-09 10:02:00,
2013-06-09 06:03:00,71.9,66.1,30.00,SW,217,1.0,1.0,82,0.00,,,0.00,Wunderground v.1.15,2013-06-09 10:03:00,
2013-06-09 06:07:00,71.8,66.4,30.00,SW,217,0.0,1.0,83,0.00,,,0.00,Wunderground v.1.15,2013-06-09 10:07:00,
2013-06-09 06:08:00,71.8,66.4,30.00,SW,217,0.0,1.0,83,0.00,,,0.00,Wunderground v.1.15,2013-06-09 10:08:00,
2013-06-09 06:09:00,71.8,66.4,30.00,SW,217,0.0,1.0,83,0.00,,,0.00,Wunderground v.1.15,2013-06-09 10:09:00,
2013-06-09 06:12:00,71.7,66.3,30.00,SW,217,1.0,3.0,83,0.00,,,0.00,Wunderground v.1.15,2013-06-09 10:12:00,
2013-06-09 06:13:00,71.7,66.3,30.00,SW,217,2.0,3.0,83,0.00,,,0.00,Wunderground v.1.15,2013-06-09 10:13:00,
2013-06-09 06:14:00,71.7,66.3,30.00,SW,217,2.0,3.0,83,0.00,,,0.00,Wunderground v.1.15,2013-06-09 10:14:00,
2013-06-09 06:18:00,71.7,66.6,30.00,SW,217,0.0,6.0,84,0.00,,,0.00,Wunderground v.1.15,2013-06-09 10:18:00,
2013-06-09 06:19:00,71.6,66.2,30.00,SW,217,0.0,6.0,83,0.00,,,0.00,Wunderground v.1.15,2013-06-09 10:19:00,
2013-06-09 06:24:00,71.5,66.4,30.00,SW,217,0.0,1.0,84,0.00,,,0.00,Wunderground v.1.15,2013-06-09 10:24:00,
2013-06-09 06:29:00,71.4,66.3,30.00,SW,217,0.0,1.0,84,0.00,,,0.00,Wunderground v.1.15,2013-06-09 10:29:00,
2013-06-09 06:34:00,71.3,66.2,30.01,SW,217,1.0,2.0,84,0.00,,,0.00,Wunderground v.1.15,2013-06-09 10:34:00,
2013-06-09 06:35:00,71.3,66.2,30.00,SW,217,0.0,2.0,84,0.00,,,0.00,Wunderground v.1.15,2013-06-09 10:35:00,
2013-06-09 06:39:00,71.3,66.2,30.01,SW,217,0.0,2.0,84,0.00,,,0.00,Wunderground v.1.15,2013-06-09 10:39:00,
2013-06-09 06:40:00,71.3,66.2,30.01,SW,217,2.0,2.0,84,0.00,,,0.00,Wunderground v.1.15,2013-06-09 10:40:00,
2013-06-09 06:44:00,71.3,66.2,30.00,SW,217,0.0,2.0,84,0.00,,,0.00,Wunderground v.1.15,2013-06-09 10:44:00,
2013-06-09 06:45:00,71.3,66.2,30.00,SW,217,0.0,2.0,84,0.00,,,0.00,Wunderground v.1.15,2013-06-09 10:45:00,
2013-06-09 06:46:00,71.3,66.2,30.01,SW,217,0.0,2.0,84,0.00,,,0.00,Wunderground v.1.15,2013-06-09 10:46:00,
2013-06-09 06:49:00,71.4,66.7,30.00,SW,217,0.0,0.0,85,0.00,,,0.00,Wunderground v.1.15,2013-06-09 10:49:00,
2013-06-09 06:50:00,71.4,66.7,30.00,SW,217,0.0,0.0,85,0.00,,,0.00,Wunderground v.1.15,2013-06-09 10:50:00,
2013-06-09 06:51:00,71.4,66.7,30.00,SW,217,0.0,0.0,85,0.00,,,0.00,Wunderground v.1.15,2013-06-09 10:51:00,
2013-06-09 06:54:00,71.4,66.7,30.00,SW,217,0.0,1.0,85,0.00,,,0.00,Wunderground v.1.15,2013-06-09 10:54:00,
2013-06-09 06:56:00,71.3,66.9,30.01,SW,217,0.0,1.0,86,0.00,,,0.00,Wunderground v.1.15,2013-06-09 10:56:00,
2013-06-09 06:57:00,71.3,66.6,30.01,SW,217,0.0,1.0,85,0.00,,,0.00,Wunderground v.1.15,2013-06-09 10:57:00,
2013-06-09 07:00:00,71.3,66.6,30.01,SW,217,2.0,3.0,85,0.00,,,0.00,Wunderground v.1.15,2013-06-09 11:00:00,
2013-06-09 07:01:00,71.3,66.6,30.01,SW,217,3.0,3.0,85,0.00,,,0.00,Wunderground v.1.15,2013-06-09 11:01:00,
2013-06-09 07:02:00,71.3,66.6,30.01,SW,217,1.0,3.0,85,0.00,,,0.00,Wunderground v.1.15,2013-06-09 11:02:00,
2013-06-09 07:03:00,71.3,66.6,30.00,SW,217,0.0,4.0,85,0.00,,,0.00,Wunderground v.1.15,2013-06-09 11:03:00,
2013-06-09 07:05:00,71.3,66.6,30.01,SW,217,2.0,4.0,85,0.00,,,0.00,Wunderground v.1.15,2013-06-09 11:05:00,
2013-06-09 07:07:00,71.3,66.6,30.01,SW,217,0.0,4.0,85,0.00,,,0.00,Wunderground v.1.15,2013-06-09 11:07:00,
2013-06-09 07:08:00,71.4,66.7,30.01,SW,217,0.0,4.0,85,0.00,,,0.00,Wunderground v.1.15,2013-06-09 11:08:00,
2013-06-09 07:10:00,71.5,66.8,30.01,SW,217,0.0,1.0,85,0.00,,,0.00,Wunderground v.1.15,2013-06-09 11:10:00,
2013-06-09 07:12:00,71.6,66.8,30.01,SW,220,3.0,11.0,85,0.00,,,0.00,Wunderground v.1.15,2013-06-09 11:12:00,
2013-06-09 07:13:00,71.6,66.8,30.01,SW,219,1.0,11.0,85,0.00,,,0.00,Wunderground v.1.15,2013-06-09 11:13:00,
2013-06-09 07:15:00,71.9,67.1,30.01,SW,219,3.0,11.0,85,0.00,,,0.00,Wunderground v.1.15,2013-06-09 11:15:00,
2013-06-09 07:17:00,72.0,66.9,30.01,SW,219,2.0,11.0,84,0.00,,,0.00,Wunderground v.1.15,2013-06-09 11:17:00,
2013-06-09 07:18:00,72.0,66.9,30.01,SW,220,0.0,11.0,84,0.00,,,0.00,Wunderground v.1.15,2013-06-09 11:18:00,
2013-06-09 07:22:00,72.3,67.5,30.01,SW,219,1.0,2.0,85,0.00,,,0.00,Wunderground v.1.15,2013-06-09 11:22:00,
2013-06-09 07:23:00,72.3,67.5,30.01,SW,219,1.0,2.0,85,0.00,,,0.00,Wunderground v.1.15,2013-06-09 11:23:00,
2013-06-09 07:28:00,72.4,67.3,30.01,SW,219,3.0,3.0,84,0.00,,,0.00,Wunderground v.1.15,2013-06-09 11:28:00,
2013-06-09 07:29:00,72.4,67.3,30.01,SW,219,0.0,3.0,84,0.00,,,0.00,Wunderground v.1.15,2013-06-09 11:29:00,
2013-06-09 07:33:00,72.6,66.8,30.01,SW,219,0.0,2.0,82,0.00,,,0.00,Wunderground v.1.15,2013-06-09 11:33:00,
2013-06-09 07:34:00,72.6,66.8,30.01,SW,219,0.0,2.0,82,0.00,,,0.00,Wunderground v.1.15,2013-06-09 11:34:00,
2013-06-09 07:38:00,72.9,67.4,30.01,SW,219,0.0,2.0,83,0.00,,,0.00,Wunderground v.1.15,2013-06-09 11:38:00,
2013-06-09 07:39:00,72.9,67.4,30.01,SW,220,0.0,2.0,83,0.00,,,0.00,Wunderground v.1.15,2013-06-09 11:39:00,
2013-06-09 07:44:00,73.1,68.0,30.01,SW,219,0.0,1.0,84,0.00,,,0.00,Wunderground v.1.15,2013-06-09 11:44:00,
2013-06-09 07:49:00,73.2,68.1,30.01,SW,219,0.0,2.0,84,0.00,,,0.00,Wunderground v.1.15,2013-06-09 11:49:00,
2013-06-09 07:54:00,73.3,68.2,30.01,SW,220,0.0,1.0,84,0.00,,,0.00,Wunderground v.1.15,2013-06-09 11:54:00,
2013-06-09 07:59:00,73.4,68.6,30.01,SW,219,0.0,1.0,85,0.00,,,0.00,Wunderground v.1.15,2013-06-09 11:59:00,
2013-06-09 08:00:00,73.4,69.0,30.01,SW,219,0.0,0.0,86,0.00,,,0.00,Wunderground v.1.15,2013-06-09 12:00:00,
2013-06-09 08:04:00,73.4,68.3,30.01,SW,219,0.0,1.0,84,0.00,,,0.00,Wunderground v.1.15,2013-06-09 12:04:00,
2013-06-09 08:05:00,73.4,68.3,30.01,SW,219,0.0,1.0,84,0.00,,,0.00,Wunderground v.1.15,2013-06-09 12:05:00,
2013-06-09 08:10:00,73.4,68.3,30.01,SW,220,0.0,0.0,84,0.00,,,0.00,Wunderground v.1.15,2013-06-09 12:10:00,
2013-06-09 08:15:00,73.4,67.9,30.00,SW,219,1.0,2.0,83,0.00,,,0.00,Wunderground v.1.15,2013-06-09 12:15:00,
2013-06-09 08:16:00,73.4,67.9,30.01,SW,220,1.0,2.0,83,0.00,,,0.00,Wunderground v.1.15,2013-06-09 12:16:00,
2013-06-09 08:20:00,73.4,68.3,30.00,SW,219,0.0,1.0,84,0.00,,,0.00,Wunderground v.1.15,2013-06-09 12:20:00,
2013-06-09 08:21:00,73.4,68.3,30.00,SW,219,0.0,1.0,84,0.00,,,0.00,Wunderground v.1.15,2013-06-09 12:21:00,
2013-06-09 08:25:00,73.5,68.7,30.00,SW,219,0.0,1.0,85,0.00,,,0.00,Wunderground v.1.15,2013-06-09 12:25:00,
2013-06-09 08:26:00,73.5,68.7,30.00,SW,220,1.0,1.0,85,0.00,,,0.00,Wunderground v.1.15,2013-06-09 12:26:00,
2013-06-09 08:27:00,73.5,68.7,30.00,SW,219,1.0,1.0,85,0.00,,,0.00,Wunderground v.1.15,2013-06-09 12:27:00,
2013-06-09 08:30:00,73.6,69.2,30.00,SW,219,0.0,0.0,86,0.00,,,0.00,Wunderground v.1.15,2013-06-09 12:30:00,
2013-06-09 08:31:00,73.6,69.2,30.00,SW,219,0.0,0.0,86,0.00,,,0.00,Wunderground v.1.15,2013-06-09 12:31:00,
2013-06-09 08:32:00,73.7,69.2,30.00,SW,219,0.0,0.0,86,0.00,,,0.00,Wunderground v.1.15,2013-06-09 12:32:00,
2013-06-09 08:35:00,73.8,69.0,30.01,SW,219,1.0,2.0,85,0.00,,,0.00,Wunderground v.1.15,2013-06-09 12:35:00,
2013-06-09 08:36:00,73.9,68.8,30.01,SW,219,0.0,2.0,84,0.00,,,0.00,Wunderground v.1.15,2013-06-09 12:36:00,
2013-06-09 08:37:00,73.9,68.8,30.01,SW,219,1.0,3.0,84,0.00,,,0.00,Wunderground v.1.15,2013-06-09 12:37:00,
2013-06-09 08:41:00,74.1,69.0,30.00,SW,219,2.0,5.0,84,0.00,,,0.00,Wunderground v.1.15,2013-06-09 12:41:00,
2013-06-09 08:42:00,74.2,68.3,30.00,SW,219,4.0,8.0,82,0.00,,,0.00,Wunderground v.1.15,2013-06-09 12:42:00,
2013-06-09 08:46:00,74.5,68.6,30.00,SSW,213,1.0,10.0,82,0.00,,,0.00,Wunderground v.1.15,2013-06-09 12:46:00,
2013-06-09 08:47:00,74.6,68.7,30.00,SSW,213,0.0,10.0,82,0.00,,,0.00,Wunderground v.1.15,2013-06-09 12:47:00,
2013-06-09 08:48:00,74.6,68.7,30.00,SSW,213,0.0,10.0,82,0.00,,,0.00,Wunderground v.1.15,2013-06-09 12:48:00,
2013-06-09 08:51:00,74.8,68.6,30.00,South,190,3.0,5.0,81,0.00,,,0.00,Wunderground v.1.15,2013-06-09 12:51:00,
2013-06-09 08:52:00,74.9,68.7,30.00,South,190,0.0,5.0,81,0.00,,,0.00,Wunderground v.1.15,2013-06-09 12:52:00,
2013-06-09 08:53:00,74.9,68.7,30.00,South,190,1.0,5.0,81,0.00,,,0.00,Wunderground v.1.15,2013-06-09 12:53:00,
2013-06-09 08:56:00,75.2,68.6,30.00,South,190,2.0,8.0,80,0.00,,,0.00,Wunderground v.1.15,2013-06-09 12:56:00,
2013-06-09 08:57:00,75.3,68.7,30.00,South,190,2.0,8.0,80,0.00,,,0.00,Wunderground v.1.15,2013-06-09 12:57:00,
2013-06-09 08:58:00,75.3,68.7,30.00,South,190,3.0,8.0,80,0.00,,,0.00,Wunderground v.1.15,2013-06-09 12:58:00,
2013-06-09 09:02:00,75.5,69.3,30.00,South,190,1.0,5.0,81,0.00,,,0.00,Wunderground v.1.15,2013-06-09 13:02:00,
2013-06-09 09:03:00,75.5,68.9,30.01,South,190,2.0,5.0,80,0.00,,,0.00,Wunderground v.1.15,2013-06-09 13:03:00,
2013-06-09 09:07:00,75.6,68.6,30.00,South,190,2.0,5.0,79,0.00,,,0.00,Wunderground v.1.15,2013-06-09 13:07:00,
2013-06-09 09:08:00,75.6,68.6,30.00,South,190,4.0,5.0,79,0.00,,,0.00,Wunderground v.1.15,2013-06-09 13:08:00,
2013-06-09 09:12:00,75.5,68.5,30.01,SSW,202,3.0,10.0,79,0.00,,,0.00,Wunderground v.1.15,2013-06-09 13:12:00,
2013-06-09 09:13:00,75.5,68.5,30.00,SSW,199,5.0,10.0,79,0.00,,,0.00,Wunderground v.1.15,2013-06-09 13:13:00,
2013-06-09 09:14:00,75.5,68.5,30.01,SSW,199,3.0,10.0,79,0.00,,,0.00,Wunderground v.1.15,2013-06-09 13:14:00,
2013-06-09 09:17:00,75.4,68.4,30.01,SSW,198,2.0,10.0,79,0.00,,,0.00,Wunderground v.1.15,2013-06-09 13:17:00,
2013-06-09 09:18:00,75.4,68.4,30.01,SSW,198,2.0,10.0,79,0.00,,,0.00,Wunderground v.1.15,2013-06-09 13:18:00,
2013-06-09 09:19:00,75.4,68.4,30.01,SSW,198,1.0,10.0,79,0.00,,,0.00,Wunderground v.1.15,2013-06-09 13:19:00,
2013-06-09 09:22:00,75.4,68.8,30.01,SSW,198,3.0,5.0,80,0.00,,,0.00,Wunderground v.1.15,2013-06-09 13:22:00,
2013-06-09 09:23:00,75.4,68.4,30.01,SSW,198,4.0,5.0,79,0.00,,,0.00,Wunderground v.1.15,2013-06-09 13:23:00,
2013-06-09 09:24:00,75.4,68.4,30.01,SSW,198,3.0,5.0,79,0.00,,,0.00,Wunderground v.1.15,2013-06-09 13:24:00,
2013-06-09 09:27:00,75.5,68.9,30.01,SSW,194,2.0,9.0,80,0.00,,,0.00,Wunderground v.1.15,2013-06-09 13:27:00,
2013-06-09 09:28:00,75.5,68.5,30.01,SSW,194,3.0,9.0,79,0.00,,,0.00,Wunderground v.1.15,2013-06-09 13:28:00,
2013-06-09 09:29:00,75.6,69.4,30.01,SSW,194,4.0,4.0,81,0.00,,,0.00,Wunderground v.1.15,2013-06-09 13:29:00,
2013-06-09 09:30:00,75.6,69.4,30.01,SSW,194,3.0,4.0,81,0.00,,,0.00,Wunderground v.1.15,2013-06-09 13:30:00,
2013-06-09 09:32:00,75.6,69.7,30.01,SSW,194,2.0,4.0,82,0.00,,,0.00,Wunderground v.1.15,2013-06-09 13:32:00,
2013-06-09 09:33:00,75.7,69.8,30.01,SSW,194,0.0,4.0,82,0.00,,,0.00,Wunderground v.1.15,2013-06-09 13:33:00,
2013-06-09 09:34:00,75.7,69.1,30.01,SSW,194,1.0,4.0,80,0.00,,,0.00,Wunderground v.1.15,2013-06-09 13:34:00,
2013-06-09 09:35:00,75.7,69.1,30.01,SSW,194,0.0,4.0,80,0.00,,,0.00,Wunderground v.1.15,2013-06-09 13:35:00,
2013-06-09 09:37:00,75.7,69.1,30.01,SSW,194,0.0,4.0,80,0.00,,,0.00,Wunderground v.1.15,2013-06-09 13:37:00,
2013-06-09 09:38:00,75.8,69.6,30.02,SSW,194,0.0,4.0,81,0.00,,,0.00,Wunderground v.1.15,2013-06-09 13:38:00,
2013-06-09 09:40:00,75.8,69.2,30.02,SSW,194,3.0,4.0,80,0.00,,,0.00,Wunderground v.1.15,2013-06-09 13:40:00,
2013-06-09 09:41:00,75.9,69.6,30.02,SSW,194,1.0,4.0,81,0.00,,,0.00,Wunderground v.1.15,2013-06-09 13:41:00,
2013-06-09 09:42:00,75.9,69.6,30.02,SSW,194,0.0,4.0,81,0.00,,,0.00,Wunderground v.1.15,2013-06-09 13:42:00,
2013-06-09 09:44:00,75.9,69.3,30.02,SSW,193,0.0,4.0,80,0.00,,,0.00,Wunderground v.1.15,2013-06-09 13:44:00,
2013-06-09 09:46:00,76.0,69.7,30.01,SSW,194,0.0,4.0,81,0.00,,,0.00,Wunderground v.1.15,2013-06-09 13:46:00,
2013-06-09 09:47:00,76.0,70.1,30.01,SSW,194,0.0,4.0,82,0.00,,,0.00,Wunderground v.1.15,2013-06-09 13:47:00,
2013-06-09 09:49:00,76.1,70.6,30.02,SSW,194,0.0,4.0,83,0.00,,,0.00,Wunderground v.1.15,2013-06-09 13:49:00,
2013-06-09 09:51:00,76.2,70.7,30.02,SSW,194,0.0,1.0,83,0.00,,,0.00,Wunderground v.1.15,2013-06-09 13:51:00,
2013-06-09 09:52:00,76.3,71.1,30.02,SSW,194,0.0,1.0,84,0.00,,,0.00,Wunderground v.1.15,2013-06-09 13:52:00,
2013-06-09 09:54:00,76.5,70.2,30.02,SSW,194,0.0,3.0,81,0.00,,,0.00,Wunderground v.1.15,2013-06-09 13:54:00,
2013-06-09 09:57:00,76.7,70.4,30.02,SSW,194,3.0,4.0,81,0.00,,,0.00,Wunderground v.1.15,2013-06-09 13:57:00,
2013-06-09 09:58:00,76.8,70.2,30.02,SSW,194,3.0,4.0,80,0.00,,,0.00,Wunderground v.1.15,2013-06-09 13:58:00,
2013-06-09 10:00:00,77.0,70.0,30.02,SSW,194,4.0,5.0,79,0.00,,,0.00,Wunderground v.1.15,2013-06-09 14:00:00,
2013-06-09 10:02:00,77.2,70.2,30.01,SSW,194,2.0,5.0,79,0.00,,,0.00,Wunderground v.1.15,2013-06-09 14:02:00,
2013-06-09 10:03:00,77.3,70.3,30.01,SSW,194,2.0,5.0,79,0.00,,,0.00,Wunderground v.1.15,2013-06-09 14:03:00,
2013-06-09 10:05:00,77.3,69.5,30.02,SSW,194,3.0,5.0,77,0.00,,,0.00,Wunderground v.1.15,2013-06-09 14:05:00,
2013-06-09 10:07:00,77.4,69.6,30.01,SSW,194,4.0,5.0,77,0.00,,,0.00,Wunderground v.1.15,2013-06-09 14:07:00,
2013-06-09 10:08:00,77.4,70.0,30.01,SSW,194,4.0,5.0,78,0.00,,,0.00,Wunderground v.1.15,2013-06-09 14:08:00,
2013-06-09 10:10:00,77.4,69.6,30.01,SSW,194,1.0,2.0,77,0.00,,,0.00,Wunderground v.1.15,2013-06-09 14:10:00,
2013-06-09 10:12:00,77.5,70.1,30.01,SSW,194,0.0,2.0,78,0.00,,,0.00,Wunderground v.1.15,2013-06-09 14:12:00,
2013-06-09 10:13:00,77.6,70.6,30.01,SSW,192,3.0,3.0,79,0.00,,,0.00,Wunderground v.1.15,2013-06-09 14:13:00,
2013-06-09 10:15:00,77.7,70.3,30.01,SSW,194,3.0,5.0,78,0.00,,,0.00,Wunderground v.1.15,2013-06-09 14:15:00,
2013-06-09 10:17:00,77.9,69.7,30.01,SSW,194,3.0,5.0,76,0.00,,,0.00,Wunderground v.1.15,2013-06-09 14:17:00,
2013-06-09 10:18:00,78.0,69.8,30.01,SSW,194,2.0,7.0,76,0.00,,,0.00,Wunderground v.1.15,2013-06-09 14:18:00,
2013-06-09 10:19:00,78.0,69.8,30.01,SSW,194,2.0,7.0,76,0.00,,,0.00,Wunderground v.1.15,2013-06-09 14:19:00,
2013-06-09 10:20:00,78.1,69.5,30.01,SSW,194,3.0,4.0,75,0.00,,,0.00,Wunderground v.1.15,2013-06-09 14:20:00,
2013-06-09 10:22:00,78.2,69.6,30.00,SSW,194,1.0,7.0,75,0.00,,,0.00,Wunderground v.1.15,2013-06-09 14:22:00,
2013-06-09 10:23:00,78.3,69.7,30.00,SSW,196,2.0,7.0,75,0.00,,,0.00,Wunderground v.1.15,2013-06-09 14:23:00,
2013-06-09 10:24:00,78.3,69.7,30.00,SSW,196,4.0,7.0,75,0.00,,,0.00,Wunderground v.1.15,2013-06-09 14:24:00,
2013-06-09 10:25:00,78.4,70.2,30.00,SSW,196,2.0,7.0,76,0.00,,,0.00,Wunderground v.1.15,2013-06-09 14:25:00,
2013-06-09 10:27:00,78.5,70.3,30.00,SSW,196,2.0,7.0,76,0.00,,,0.00,Wunderground v.1.15,2013-06-09 14:27:00,
2013-06-09 10:29:00,78.7,71.3,30.00,SSW,196,3.0,7.0,78,0.00,,,0.00,Wunderground v.1.15,2013-06-09 14:29:00,
2013-06-09 10:30:00,78.8,71.0,30.00,SSW,196,4.0,4.0,77,0.00,,,0.00,Wunderground v.1.15,2013-06-09 14:30:00,
2013-06-09 10:32:00,79.3,71.5,30.00,SSW,195,3.0,4.0,77,0.00,,,0.00,Wunderground v.1.15,2013-06-09 14:32:00,
2013-06-09 10:34:00,79.5,70.9,30.00,SSW,192,3.0,10.0,75,0.00,,,0.00,Wunderground v.1.15,2013-06-09 14:34:00,
2013-06-09 10:35:00,79.9,72.8,30.01,SSW,192,2.0,10.0,79,0.00,,,0.00,Wunderground v.1.15,2013-06-09 14:35:00,
2013-06-09 10:37:00,80.3,72.4,30.00,SSW,192,4.0,10.0,77,0.00,,,0.00,Wunderground v.1.15,2013-06-09 14:37:00,
2013-06-09 10:39:00,80.6,71.9,30.00,SSW,192,2.0,10.0,75,0.00,,,0.00,Wunderground v.1.15,2013-06-09 14:39:00,
2013-06-09 10:40:00,80.7,72.0,30.00,SSW,192,3.0,6.0,75,0.00,,,0.00,Wunderground v.1.15,2013-06-09 14:40:00,
2013-06-09 10:43:00,80.7,70.8,30.00,SSW,194,4.0,9.0,72,0.00,,,0.00,Wunderground v.1.15,2013-06-09 14:43:00,
2013-06-09 10:44:00,80.6,70.7,30.00,SSW,194,1.0,9.0,72,0.00,,,0.00,Wunderground v.1.15,2013-06-09 14:44:00,
2013-06-09 10:45:00,80.6,70.7,30.00,SSW,194,3.0,9.0,72,0.00,,,0.00,Wunderground v.1.15,2013-06-09 14:45:00,
2013-06-09 10:46:00,80.5,71.4,30.00,SSW,194,5.0,9.0,74,0.00,,,0.00,Wunderground v.1.15,2013-06-09 14:46:00,
2013-06-09 10:48:00,80.3,70.9,30.00,SSW,194,3.0,9.0,73,0.00,,,0.00,Wunderground v.1.15,2013-06-09 14:48:00,
2013-06-09 10:50:00,80.3,70.4,30.00,SSW,194,3.0,3.0,72,0.00,,,0.00,Wunderground v.1.15,2013-06-09 14:50:00,
2013-06-09 10:51:00,80.3,70.9,30.00,SSW,194,3.0,3.0,73,0.00,,,0.00,Wunderground v.1.15,2013-06-09 14:51:00,
2013-06-09 10:53:00,80.3,71.3,30.00,SSW,194,2.0,5.0,74,0.00,,,0.00,Wunderground v.1.15,2013-06-09 14:53:00,
2013-06-09 10:55:00,80.4,71.7,30.00,SSW,194,2.0,5.0,75,0.00,,,0.00,Wunderground v.1.15,2013-06-09 14:55:00,
2013-06-09 10:56:00,80.5,71.4,30.00,SSW,194,5.0,6.0,74,0.00,,,0.00,Wunderground v.1.15,2013-06-09 14:56:00,
2013-06-09 10:58:00,80.6,71.9,30.00,SSW,194,4.0,6.0,75,0.00,,,0.00,Wunderground v.1.15,2013-06-09 14:58:00,
2013-06-09 11:00:00,81.0,71.9,30.00,SSW,196,3.0,8.0,74,0.00,,,0.00,Wunderground v.1.15,2013-06-09 15:00:00,
2013-06-09 11:02:00,81.0,70.7,30.00,SSW,196,4.0,8.0,71,0.00,,,0.00,Wunderground v.1.15,2013-06-09 15:02:00,
2013-06-09 11:03:00,81.0,71.5,30.00,SSW,196,4.0,8.0,73,0.00,,,0.00,Wunderground v.1.15,2013-06-09 15:03:00,
2013-06-09 11:06:00,81.0,71.5,29.99,SSW,207,5.0,8.0,73,0.00,,,0.00,Wunderground v.1.15,2013-06-09 15:06:00,
2013-06-09 11:07:00,81.0,71.5,29.99,SSW,209,4.0,8.0,73,0.00,,,0.00,Wunderground v.1.15,2013-06-09 15:07:00,
2013-06-09 11:08:00,80.9,70.6,29.99,SSW,207,3.0,8.0,71,0.00,,,0.00,Wunderground v.1.15,2013-06-09 15:08:00,
2013-06-09 11:09:00,80.9,71.0,29.99,SSW,207,3.0,8.0,72,0.00,,,0.00,Wunderground v.1.15,2013-06-09 15:09:00,
2013-06-09 11:12:00,80.9,72.2,30.00,SSW,207,0.0,5.0,75,0.00,,,0.00,Wunderground v.1.15,2013-06-09 15:12:00,
2013-06-09 11:13:00,80.9,72.2,30.00,SSW,208,3.0,5.0,75,0.00,,,0.00,Wunderground v.1.15,2013-06-09 15:13:00,
2013-06-09 11:14:00,80.9,70.6,30.00,SSW,208,3.0,5.0,71,0.00,,,0.00,Wunderground v.1.15,2013-06-09 15:14:00,
2013-06-09 11:17:00,80.9,70.6,30.00,SSW,207,3.0,5.0,71,0.00,,,0.00,Wunderground v.1.15,2013-06-09 15:17:00,
2013-06-09 11:18:00,81.0,70.7,30.00,SSW,208,1.0,5.0,71,0.00,,,0.00,Wunderground v.1.15,2013-06-09 15:18:00,
2013-06-09 11:19:00,81.1,72.0,30.00,SSW,207,4.0,5.0,74,0.00,,,0.00,Wunderground v.1.15,2013-06-09 15:19:00,
2013-06-09 11:22:00,81.5,71.2,29.99,SSW,207,3.0,4.0,71,0.00,,,0.00,Wunderground v.1.15,2013-06-09 15:22:00,
2013-06-09 11:23:00,81.6,72.1,29.99,SSW,208,5.0,5.0,73,0.00,,,0.00,Wunderground v.1.15,2013-06-09 15:23:00,
2013-06-09 11:24:00,81.6,72.1,30.00,SSW,207,2.0,6.0,73,0.00,,,0.00,Wunderground v.1.15,2013-06-09 15:24:00,
2013-06-09 11:27:00,81.5,71.6,30.00,SSW,209,1.0,6.0,72,0.00,,,0.00,Wunderground v.1.15,2013-06-09 15:27:00,
2013-06-09 11:28:00,81.5,71.6,30.00,SSW,209,0.0,6.0,72,0.00,,,0.00,Wunderground v.1.15,2013-06-09 15:28:00,
2013-06-09 11:29:00,81.5,70.8,29.99,SSW,209,0.0,6.0,70,0.00,,,0.00,Wunderground v.1.15,2013-06-09 15:29:00,
2013-06-09 11:33:00,81.6,72.1,30.00,SSW,209,1.0,3.0,73,0.00,,,0.00,Wunderground v.1.15,2013-06-09 15:33:00,
2013-06-09 11:34:00,81.7,73.0,30.00,SSW,209,1.0,3.0,75,0.00,,,0.00,Wunderground v.1.15,2013-06-09 15:34:00,
2013-06-09 11:38:00,82.0,72.9,29.99,SSW,209,1.0,3.0,74,0.00,,,0.00,Wunderground v.1.15,2013-06-09 15:38:00,
2013-06-09 11:39:00,82.1,72.2,29.99,SSW,209,1.0,3.0,72,0.00,,,0.00,Wunderground v.1.15,2013-06-09 15:39:00,
2013-06-09 11:43:00,82.5,70.9,29.99,SSW,209,0.0,3.0,68,0.00,,,0.00,Wunderground v.1.15,2013-06-09 15:43:00,
2013-06-09 11:44:00,82.6,72.7,29.99,SSW,209,1.0,3.0,72,0.00,,,0.00,Wunderground v.1.15,2013-06-09 15:44:00,
2013-06-09 11:48:00,83.0,73.4,29.99,SSW,209,4.0,4.0,73,0.00,,,0.00,Wunderground v.1.15,2013-06-09 15:48:00,
2013-06-09 11:49:00,83.1,71.9,29.99,SSW,209,3.0,4.0,69,0.00,,,0.00,Wunderground v.1.15,2013-06-09 15:49:00,
2013-06-09 11:50:00,83.2,72.0,29.99,SSW,209,0.0,1.0,69,0.00,,,0.00,Wunderground v.1.15,2013-06-09 15:50:00,
2013-06-09 11:53:00,83.4,73.4,29.99,SSW,209,3.0,5.0,72,0.00,,,0.00,Wunderground v.1.15,2013-06-09 15:53:00,
2013-06-09 11:54:00,83.4,72.6,29.99,SSW,209,3.0,5.0,70,0.00,,,0.00,Wunderground v.1.15,2013-06-09 15:54:00,
2013-06-09 11:55:00,83.4,73.4,29.99,SSW,209,0.0,5.0,72,0.00,,,0.00,Wunderground v.1.15,2013-06-09 15:55:00,
2013-06-09 11:58:00,83.6,74.4,29.99,SSW,209,2.0,5.0,74,0.00,,,0.00,Wunderground v.1.15,2013-06-09 15:58:00,
2013-06-09 11:59:00,83.6,73.6,29.99,SSW,209,2.0,5.0,72,0.00,,,0.00,Wunderground v.1.15,2013-06-09 15:59:00,
2013-06-09 12:00:00,83.6,73.2,29.99,SSW,209,1.0,1.0,71,0.00,,,0.00,Wunderground v.1.15,2013-06-09 16:00:00,
2013-06-09 12:04:00,83.6,73.2,29.99,SSW,209,0.0,4.0,71,0.00,,,0.00,Wunderground v.1.15,2013-06-09 16:04:00,
2013-06-09 12:05:00,83.6,73.6,29.99,SSW,209,3.0,4.0,72,0.00,,,0.00,Wunderground v.1.15,2013-06-09 16:05:00,
2013-06-09 12:09:00,83.5,72.7,29.99,SSW,209,7.0,7.0,70,0.00,,,0.00,Wunderground v.1.15,2013-06-09 16:09:00,
2013-06-09 12:10:00,83.4,72.6,29.99,SSW,209,2.0,2.0,70,0.00,,,0.00,Wunderground v.1.15,2013-06-09 16:10:00,
2013-06-09 12:11:00,83.3,72.9,29.99,SSW,209,1.0,2.0,71,0.00,,,0.00,Wunderground v.1.15,2013-06-09 16:11:00,
2013-06-09 12:14:00,82.9,72.9,29.98,SSW,209,0.0,7.0,72,0.00,,,0.00,Wunderground v.1.15,2013-06-09 16:14:00,
2013-06-09 12:15:00,82.8,73.7,29.98,SSW,209,1.0,7.0,74,0.00,,,0.00,Wunderground v.1.15,2013-06-09 16:15:00,
2013-06-09 12:16:00,82.7,71.9,29.98,SSW,209,1.0,7.0,70,0.00,,,0.00,Wunderground v.1.15,2013-06-09 16:16:00,
2013-06-09 12:19:00,82.8,73.3,29.98,SSW,209,1.0,2.0,73,0.00,,,0.00,Wunderground v.1.15,2013-06-09 16:19:00,
2013-06-09 12:20:00,82.9,73.4,29.98,SSW,209,2.0,3.0,73,0.00,,,0.00,Wunderground v.1.15,2013-06-09 16:20:00,
2013-06-09 12:22:00,82.9,72.9,29.98,SSW,209,1.0,3.0,72,0.00,,,0.00,Wunderground v.1.15,2013-06-09 16:22:00,
2013-06-09 12:24:00,83.0,74.3,29.98,SSW,209,1.0,3.0,75,0.00,,,0.00,Wunderground v.1.15,2013-06-09 16:24:00,
2013-06-09 12:25:00,83.0,74.6,29.97,SSW,209,0.0,3.0,76,0.00,,,0.00,Wunderground v.1.15,2013-06-09 16:25:00,
2013-06-09 12:26:00,83.0,74.6,29.97,SSW,209,1.0,3.0,76,0.00,,,0.00,Wunderground v.1.15,2013-06-09 16:26:00,
2013-06-09 12:27:00,83.0,74.3,29.97,SSW,209,0.0,3.0,75,0.00,,,0.00,Wunderground v.1.15,2013-06-09 16:27:00,
2013-06-09 12:28:00,83.0,73.9,29.97,SSW,209,1.0,3.0,74,0.00,,,0.00,Wunderground v.1.15,2013-06-09 16:28:00,
2013-06-09 12:30:00,82.9,73.8,29.97,SSW,209,0.0,1.0,74,0.00,,,0.00,Wunderground v.1.15,2013-06-09 16:30:00,
2013-06-09 12:32:00,82.9,72.9,29.97,SSW,209,2.0,3.0,72,0.00,,,0.00,Wunderground v.1.15,2013-06-09 16:32:00,
2013-06-09 12:33:00,82.7,73.2,29.97,SSW,209,0.0,3.0,73,0.00,,,0.00,Wunderground v.1.15,2013-06-09 16:33:00,
2013-06-09 12:35:00,82.6,73.1,29.97,SSW,209,2.0,4.0,73,0.00,,,0.00,Wunderground v.1.15,2013-06-09 16:35:00,
2013-06-09 12:37:00,82.4,74.1,29.97,SSW,209,0.0,4.0,76,0.00,,,0.00,Wunderground v.1.15,2013-06-09 16:37:00,
2013-06-09 12:38:00,82.3,73.2,29.97,SSW,209,0.0,4.0,74,0.00,,,0.00,Wunderground v.1.15,2013-06-09 16:38:00,
2013-06-09 12:40:00,82.2,73.1,29.97,SSW,209,1.0,1.0,74,0.00,,,0.00,Wunderground v.1.15,2013-06-09 16:40:00,
2013-06-09 12:42:00,82.0,73.3,29.97,SSW,209,1.0,3.0,75,0.00,,,0.00,Wunderground v.1.15,2013-06-09 16:42:00,
2013-06-09 12:43:00,81.9,72.0,29.97,SSW,209,1.0,3.0,72,0.00,,,0.00,Wunderground v.1.15,2013-06-09 16:43:00,
2013-06-09 12:45:00,81.7,72.2,29.97,SSW,209,1.0,3.0,73,0.00,,,0.00,Wunderground v.1.15,2013-06-09 16:45:00,
2013-06-09 12:47:00,81.6,73.3,29.97,SSW,209,0.0,3.0,76,0.00,,,0.00,Wunderground v.1.15,2013-06-09 16:47:00,
2013-06-09 12:48:00,81.6,73.3,29.97,SSW,209,0.0,3.0,76,0.00,,,0.00,Wunderground v.1.15,2013-06-09 16:48:00,
2013-06-09 12:50:00,81.6,73.7,29.96,SSW,209,0.0,1.0,77,0.00,,,0.00,Wunderground v.1.15,2013-06-09 16:50:00,
2013-06-09 12:52:00,81.5,73.6,29.97,SSW,209,0.0,1.0,77,0.00,,,0.00,Wunderground v.1.15,2013-06-09 16:52:00,
2013-06-09 12:53:00,81.5,73.6,29.97,SSW,209,0.0,1.0,77,0.00,,,0.00,Wunderground v.1.15,2013-06-09 16:53:00,
2013-06-09 12:55:00,81.5,74.4,29.96,SSW,209,0.0,1.0,79,0.00,,,0.00,Wunderground v.1.15,2013-06-09 16:55:00,
2013-06-09 12:57:00,81.6,73.7,29.96,SSW,209,1.0,2.0,77,0.00,,,0.00,Wunderground v.1.15,2013-06-09 16:57:00,
2013-06-09 12:58:00,81.6,73.7,29.96,SSW,209,1.0,3.0,77,0.00,,,0.00,Wunderground v.1.15,2013-06-09 16:58:00,
2013-06-09 13:02:00,81.7,73.0,29.96,SSW,209,1.0,3.0,75,0.00,,,0.00,Wunderground v.1.15,2013-06-09 17:02:00,
2013-06-09 13:03:00,81.7,73.0,29.96,SSW,209,2.0,3.0,75,0.00,,,0.00,Wunderground v.1.15,2013-06-09 17:03:00,
2013-06-09 13:07:00,81.8,72.3,29.96,SSW,209,0.0,3.0,73,0.00,,,0.00,Wunderground v.1.15,2013-06-09 17:07:00,
2013-06-09 13:08:00,81.8,72.3,29.96,SSW,209,3.0,3.0,73,0.00,,,0.00,Wunderground v.1.15,2013-06-09 17:08:00,
2013-06-09 13:12:00,81.7,73.0,29.95,SSW,209,4.0,4.0,75,0.00,,,0.00,Wunderground v.1.15,2013-06-09 17:12:00,
2013-06-09 13:13:00,81.7,73.0,29.95,SSW,209,3.0,4.0,75,0.00,,,0.00,Wunderground v.1.15,2013-06-09 17:13:00,
2013-06-09 13:14:00,81.7,72.6,29.95,SSW,209,5.0,6.0,74,0.00,,,0.00,Wunderground v.1.15,2013-06-09 17:14:00,
2013-06-09 13:15:00,81.6,72.1,29.95,SSW,209,4.0,8.0,73,0.00,,,0.00,Wunderground v.1.15,2013-06-09 17:15:00,
2013-06-09 13:18:00,81.3,73.0,29.95,SSW,209,3.0,8.0,76,0.00,,,0.00,Wunderground v.1.15,2013-06-09 17:18:00,
2013-06-09 13:19:00,81.3,72.6,29.95,SSW,209,3.0,8.0,75,0.00,,,0.00,Wunderground v.1.15,2013-06-09 17:19:00,
2013-06-09 13:20:00,81.4,73.1,29.95,SSW,209,0.0,3.0,76,0.00,,,0.00,Wunderground v.1.15,2013-06-09 17:20:00,
2013-06-09 13:23:00,81.5,72.4,29.94,SSW,209,2.0,5.0,74,0.00,,,0.00,Wunderground v.1.15,2013-06-09 17:23:00,
2013-06-09 13:24:00,81.6,73.3,29.94,SSW,209,1.0,5.0,76,0.00,,,0.00,Wunderground v.1.15,2013-06-09 17:24:00,
2013-06-09 13:25:00,81.6,73.3,29.94,SSW,209,2.0,5.0,76,0.00,,,0.00,Wunderground v.1.15,2013-06-09 17:25:00,
2013-06-09 13:27:00,81.6,73.7,29.94,SSW,209,0.0,5.0,77,0.00,,,0.00,Wunderground v.1.15,2013-06-09 17:27:00,
2013-06-09 13:28:00,81.6,73.7,29.94,SSW,209,0.0,5.0,77,0.00,,,0.00,Wunderground v.1.15,2013-06-09 17:28:00,
2013-06-09 13:29:00,81.6,74.1,29.94,SSW,209,2.0,4.0,78,0.00,,,0.00,Wunderground v.1.15,2013-06-09 17:29:00,
2013-06-09 13:30:00,81.6,74.1,29.94,SSW,209,3.0,4.0,78,0.00,,,0.00,Wunderground v.1.15,2013-06-09 17:30:00,
2013-06-09 13:31:00,81.6,73.3,29.94,SSW,209,1.0,4.0,76,0.00,,,0.00,Wunderground v.1.15,2013-06-09 17:31:00,
2013-06-09 13:32:00,81.6,72.9,29.94,SSW,209,0.0,4.0,75,0.00,,,0.00,Wunderground v.1.15,2013-06-09 17:32:00,
2013-06-09 13:34:00,81.7,74.2,29.94,SSW,209,2.0,4.0,78,0.00,,,0.00,Wunderground v.1.15,2013-06-09 17:34:00,
2013-06-09 13:35:00,81.6,72.1,29.94,SSW,209,1.0,4.0,73,0.00,,,0.00,Wunderground v.1.15,2013-06-09 17:35:00,
2013-06-09 13:36:00,81.6,72.9,29.94,SSW,209,3.0,4.0,75,0.00,,,0.00,Wunderground v.1.15,2013-06-09 17:36:00,
2013-06-09 13:37:00,81.6,72.9,29.94,SSW,209,1.0,4.0,75,0.00,,,0.00,Wunderground v.1.15,2013-06-09 17:37:00,
2013-06-09 13:39:00,81.7,73.4,29.94,SSW,209,2.0,2.0,76,0.00,,,0.00,Wunderground v.1.15,2013-06-09 17:39:00,
2013-06-09 13:40:00,81.7,73.8,29.94,SSW,209,2.0,2.0,77,0.00,,,0.00,Wunderground v.1.15,2013-06-09 17:40:00,
2013-06-09 13:41:00,81.7,73.4,29.94,SSW,209,3.0,3.0,76,0.00,,,0.00,Wunderground v.1.15,2013-06-09 17:41:00,
2013-06-09 13:42:00,81.7,73.4,29.94,SSW,209,0.0,3.0,76,0.00,,,0.00,Wunderground v.1.15,2013-06-09 17:42:00,
2013-06-09 13:45:00,81.9,75.5,29.94,SSW,209,2.0,3.0,81,0.00,,,0.00,Wunderground v.1.15,2013-06-09 17:45:00,
2013-06-09 13:47:00,82.0,72.9,29.94,SSW,209,1.0,4.0,74,0.00,,,0.00,Wunderground v.1.15,2013-06-09 17:47:00,
2013-06-09 13:48:00,82.0,73.3,29.94,SSW,209,1.0,4.0,75,0.00,,,0.00,Wunderground v.1.15,2013-06-09 17:48:00,
2013-06-09 13:50:00,82.0,72.1,29.94,SSW,209,0.0,1.0,72,0.00,,,0.00,Wunderground v.1.15,2013-06-09 17:50:00,
2013-06-09 13:51:00,82.0,72.5,29.94,SSW,209,0.0,1.0,73,0.00,,,0.00,Wunderground v.1.15,2013-06-09 17:51:00,
2013-06-09 13:52:00,82.0,73.3,29.94,SSW,209,1.0,2.0,75,0.00,,,0.00,Wunderground v.1.15,2013-06-09 17:52:00,
2013-06-09 13:54:00,82.0,73.3,29.94,SSW,209,0.0,3.0,75,0.00,,,0.00,Wunderground v.1.15,2013-06-09 17:54:00,
2013-06-09 13:55:00,82.1,73.8,29.94,SSW,209,2.0,3.0,76,0.00,,,0.00,Wunderground v.1.15,2013-06-09 17:55:00,
2013-06-09 13:56:00,82.1,73.8,29.94,SSW,209,0.0,3.0,76,0.00,,,0.00,Wunderground v.1.15,2013-06-09 17:56:00,
2013-06-09 13:57:00,82.2,74.3,29.93,SSW,209,1.0,3.0,77,0.00,,,0.00,Wunderground v.1.15,2013-06-09 17:57:00,
2013-06-09 13:59:00,82.4,75.2,29.93,SSW,209,2.0,3.0,79,0.00,,,0.00,Wunderground v.1.15,2013-06-09 17:59:00,
2013-06-09 14:01:00,82.7,75.5,29.93,SSW,209,1.0,2.0,79,0.00,,,0.00,Wunderground v.1.15,2013-06-09 18:01:00,
2013-06-09 14:02:00,83.1,74.7,29.93,SSW,209,1.0,2.0,76,0.00,,,0.00,Wunderground v.1.15,2013-06-09 18:02:00,
2013-06-09 14:05:00,83.4,73.8,29.93,SSW,209,1.0,3.0,73,0.00,,,0.00,Wunderground v.1.15,2013-06-09 18:05:00,
2013-06-09 14:06:00,83.5,74.3,29.93,SSW,209,1.0,3.0,74,0.00,,,0.00,Wunderground v.1.15,2013-06-09 18:06:00,
2013-06-09 14:07:00,83.6,74.4,29.93,SSW,209,0.0,3.0,74,0.00,,,0.00,Wunderground v.1.15,2013-06-09 18:07:00,
2013-06-09 14:08:00,83.6,74.0,29.93,SSW,209,0.0,3.0,73,0.00,,,0.00,Wunderground v.1.15,2013-06-09 18:08:00,
2013-06-09 14:10:00,83.6,74.8,29.93,SSW,209,0.0,1.0,75,0.00,,,0.00,Wunderground v.1.15,2013-06-09 18:10:00,
2013-06-09 14:11:00,83.6,75.6,29.92,SSW,209,3.0,3.0,77,0.00,,,0.00,Wunderground v.1.15,2013-06-09 18:11:00,
2013-06-09 14:12:00,83.5,75.5,29.92,SSW,209,1.0,3.0,77,0.00,,,0.00,Wunderground v.1.15,2013-06-09 18:12:00,
2013-06-09 14:13:00,83.3,73.7,29.92,SSW,209,2.0,3.0,73,0.00,,,0.00,Wunderground v.1.15,2013-06-09 18:13:00,
2013-06-09 14:15:00,83.0,73.4,29.93,SSW,209,0.0,3.0,73,0.00,,,0.00,Wunderground v.1.15,2013-06-09 18:15:00,
2013-06-09 14:17:00,82.7,72.7,29.92,SSW,209,0.0,3.0,72,0.00,,,0.00,Wunderground v.1.15,2013-06-09 18:17:00,
2013-06-09 14:18:00,82.5,73.8,29.92,SSW,209,0.0,3.0,75,0.00,,,0.00,Wunderground v.1.15,2013-06-09 18:18:00,
2013-06-09 14:19:00,82.4,73.7,29.92,SSW,209,1.0,3.0,75,0.00,,,0.00,Wunderground v.1.15,2013-06-09 18:19:00,
2013-06-09 14:20:00,82.1,73.4,29.93,SSW,209,3.0,3.0,75,0.00,,,0.00,Wunderground v.1.15,2013-06-09 18:20:00,
2013-06-09 14:22:00,81.8,73.5,29.93,SSW,209,1.0,3.0,76,0.00,,,0.00,Wunderground v.1.15,2013-06-09 18:22:00,
2013-06-09 14:23:00,81.6,73.3,29.92,SSW,209,1.0,3.0,76,0.00,,,0.00,Wunderground v.1.15,2013-06-09 18:23:00,
2013-06-09 14:24:00,81.4,72.7,29.92,SSW,209,2.0,4.0,75,0.00,,,0.00,Wunderground v.1.15,2013-06-09 18:24:00,
2013-06-09 14:25:00,81.3,73.4,29.93,SSW,209,1.0,4.0,77,0.00,,,0.00,Wunderground v.1.15,2013-06-09 18:25:00,
2013-06-09 14:27:00,81.1,73.6,29.92,SSW,209,0.0,4.0,78,0.00,,,0.00,Wunderground v.1.15,2013-06-09 18:27:00,
2013-06-09 14:28:00,81.0,73.5,29.92,SSW,210,3.0,4.0,78,0.00,,,0.00,Wunderground v.1.15,2013-06-09 18:28:00,
2013-06-09 14:29:00,80.9,73.8,29.93,SSW,210,0.0,4.0,79,0.00,,,0.00,Wunderground v.1.15,2013-06-09 18:29:00,
2013-06-09 14:30:00,80.8,73.7,29.93,SSW,210,0.0,1.0,79,0.00,,,0.00,Wunderground v.1.15,2013-06-09 18:30:00,
2013-06-09 14:33:00,80.6,73.5,29.93,SSW,210,1.0,2.0,79,0.00,,,0.00,Wunderground v.1.15,2013-06-09 18:33:00,
2013-06-09 14:34:00,80.4,73.7,29.93,SSW,209,3.0,4.0,80,0.00,,,0.00,Wunderground v.1.15,2013-06-09 18:34:00,
2013-06-09 14:35:00,80.3,73.2,29.93,SSW,209,2.0,4.0,79,0.00,,,0.00,Wunderground v.1.15,2013-06-09 18:35:00,
2013-06-09 14:38:00,80.2,73.8,29.93,SSW,209,0.0,4.0,81,0.00,,,0.00,Wunderground v.1.15,2013-06-09 18:38:00,
2013-06-09 14:39:00,80.2,73.8,29.93,SSW,209,0.0,1.0,81,0.00,,,0.00,Wunderground v.1.15,2013-06-09 18:39:00,
2013-06-09 14:40:00,80.1,73.7,29.93,SSW,209,1.0,2.0,81,0.00,,,0.00,Wunderground v.1.15,2013-06-09 18:40:00,
2013-06-09 14:43:00,80.1,74.1,29.93,SSW,209,1.0,2.0,82,0.00,,,0.00,Wunderground v.1.15,2013-06-09 18:43:00,
2013-06-09 14:44:00,80.1,74.1,29.93,SSW,210,0.0,2.0,82,0.00,,,0.00,Wunderground v.1.15,2013-06-09 18:44:00,
2013-06-09 14:45:00,80.1,74.1,29.93,SSW,209,0.0,2.0,82,0.00,,,0.00,Wunderground v.1.15,2013-06-09 18:45:00,
2013-06-09 14:48:00,80.0,74.0,29.92,SSW,209,0.0,2.0,82,0.00,,,0.00,Wunderground v.1.15,2013-06-09 18:48:00,
2013-06-09 14:49:00,80.0,74.4,29.92,SSW,209,0.0,2.0,83,0.00,,,0.00,Wunderground v.1.15,2013-06-09 18:49:00,
2013-06-09 14:50:00,79.9,73.9,29.92,SSW,209,0.0,0.0,82,0.00,,,0.00,Wunderground v.1.15,2013-06-09 18:50:00,
2013-06-09 14:51:00,79.9,73.9,29.92,SSW,209,0.0,0.0,82,0.00,,,0.00,Wunderground v.1.15,2013-06-09 18:51:00,
2013-06-09 14:54:00,79.6,74.0,29.93,SSW,209,0.0,2.0,83,0.00,,,0.00,Wunderground v.1.15,2013-06-09 18:54:00,
2013-06-09 14:55:00,79.4,73.8,29.93,SSW,209,0.0,2.0,83,0.00,,,0.00,Wunderground v.1.15,2013-06-09 18:55:00,
2013-06-09 14:56:00,79.4,73.8,29.93,SSW,209,1.0,2.0,83,0.00,,,0.00,Wunderground v.1.15,2013-06-09 18:56:00,
2013-06-09 14:57:00,79.2,73.9,29.93,SSW,209,0.0,2.0,84,0.00,,,0.00,Wunderground v.1.15,2013-06-09 18:57:00,
2013-06-09 14:59:00,79.0,73.7,29.93,SSW,209,0.0,2.0,84,0.00,,,0.00,Wunderground v.1.15,2013-06-09 18:59:00,
2013-06-09 15:01:00,78.7,73.5,29.93,SSW,209,0.0,1.0,84,0.00,,,0.00,Wunderground v.1.15,2013-06-09 19:01:00,
2013-06-09 15:02:00,78.6,73.0,29.93,SSW,209,0.0,3.0,83,0.00,,,0.00,Wunderground v.1.15,2013-06-09 19:02:00,
2013-06-09 15:04:00,78.2,73.0,29.94,SSW,209,0.0,4.0,84,0.00,,,0.00,Wunderground v.1.15,2013-06-09 19:04:00,
2013-06-09 15:06:00,77.8,72.9,29.94,SSW,209,0.0,4.0,85,0.00,,,0.00,Wunderground v.1.15,2013-06-09 19:06:00,
2013-06-09 15:07:00,77.7,72.8,29.94,SSW,209,2.0,4.0,85,0.00,,,0.00,Wunderground v.1.15,2013-06-09 19:07:00,
2013-06-09 15:09:00,77.3,72.4,29.94,SSW,210,1.0,6.0,85,0.00,,,0.00,Wunderground v.1.15,2013-06-09 19:09:00,
2013-06-09 15:11:00,76.8,71.2,29.94,SW,221,2.0,5.0,83,0.00,,,0.01,Wunderground v.1.15,2013-06-09 19:11:00,
2013-06-09 15:12:00,76.6,71.0,29.94,SW,221,2.0,5.0,83,0.00,,,0.01,Wunderground v.1.15,2013-06-09 19:12:00,
2013-06-09 15:13:00,76.4,70.9,29.94,SW,221,1.0,5.0,83,0.00,,,0.01,Wunderground v.1.15,2013-06-09 19:13:00,
2013-06-09 15:15:00,75.8,70.6,29.94,SW,221,1.0,5.0,84,0.00,,,0.01,Wunderground v.1.15,2013-06-09 19:15:00,
2013-06-09 15:17:00,75.2,70.4,29.95,SW,221,5.0,12.0,85,0.10,,,0.02,Wunderground v.1.15,2013-06-09 19:17:00,
2013-06-09 15:18:00,74.8,70.0,29.95,SW,219,2.0,12.0,85,0.92,,,0.04,Wunderground v.1.15,2013-06-09 19:18:00,
2013-06-09 15:20:00,74.3,70.2,29.95,SW,218,6.0,6.0,87,1.97,,,0.10,Wunderground v.1.15,2013-06-09 19:20:00,
2013-06-09 15:22:00,73.5,70.1,29.96,SW,218,1.0,11.0,89,0.27,,,0.11,Wunderground v.1.15,2013-06-09 19:22:00,
2013-06-09 15:23:00,73.5,70.1,29.96,SW,234,6.0,11.0,89,0.23,,,0.11,Wunderground v.1.15,2013-06-09 19:23:00,
2013-06-09 15:25:00,73.0,69.9,29.96,SW,231,5.0,11.0,90,0.13,,,0.12,Wunderground v.1.15,2013-06-09 19:25:00,
2013-06-09 15:27:00,72.6,69.8,29.96,SW,231,0.0,11.0,91,0.13,,,0.12,Wunderground v.1.15,2013-06-09 19:27:00,
2013-06-09 15:28:00,72.6,69.8,29.96,SW,231,2.0,11.0,91,0.13,,,0.12,Wunderground v.1.15,2013-06-09 19:28:00,
2013-06-09 15:29:00,72.5,70.0,29.96,SW,230,0.0,11.0,92,0.13,,,0.12,Wunderground v.1.15,2013-06-09 19:29:00,
2013-06-09 15:30:00,72.4,69.9,29.96,SW,232,1.0,4.0,92,0.12,,,0.13,Wunderground v.1.15,2013-06-09 19:30:00,
2013-06-09 15:32:00,72.3,70.2,29.96,SW,230,1.0,4.0,93,0.12,,,0.13,Wunderground v.1.15,2013-06-09 19:32:00,
2013-06-09 15:33:00,72.3,70.2,29.96,SW,231,0.0,4.0,93,0.12,,,0.13,Wunderground v.1.15,2013-06-09 19:33:00,
2013-06-09 15:34:00,72.2,70.1,29.95,SW,230,0.0,4.0,93,0.12,,,0.13,Wunderground v.1.15,2013-06-09 19:34:00,
2013-06-09 15:35:00,72.1,70.0,29.95,SW,232,3.0,4.0,93,0.11,,,0.14,Wunderground v.1.15,2013-06-09 19:35:00,
2013-06-09 15:38:00,72.0,69.9,29.95,SW,231,3.0,4.0,93,0.23,,,0.15,Wunderground v.1.15,2013-06-09 19:38:00,
2013-06-09 15:39:00,72.0,69.9,29.95,SW,231,1.0,9.0,93,0.23,,,0.15,Wunderground v.1.15,2013-06-09 19:39:00,
2013-06-09 15:42:00,71.8,70.0,29.95,SW,230,0.0,5.0,94,0.14,,,0.15,Wunderground v.1.15,2013-06-09 19:42:00,
2013-06-09 15:43:00,71.7,69.9,29.95,SW,231,2.0,5.0,94,0.13,,,0.16,Wunderground v.1.15,2013-06-09 19:43:00,
2013-06-09 15:44:00,71.7,69.9,29.95,SW,230,0.0,5.0,94,0.13,,,0.16,Wunderground v.1.15,2013-06-09 19:44:00,
2013-06-09 15:47:00,71.5,69.7,29.95,SW,231,0.0,5.0,94,0.12,,,0.16,Wunderground v.1.15,2013-06-09 19:47:00,
2013-06-09 15:48:00,71.6,69.8,29.95,SW,231,2.0,5.0,94,0.10,,,0.16,Wunderground v.1.15,2013-06-09 19:48:00,
2013-06-09 15:49:00,71.6,70.1,29.95,SW,231,0.0,5.0,95,0.09,,,0.16,Wunderground v.1.15,2013-06-09 19:49:00,
2013-06-09 15:50:00,71.6,70.1,29.95,SW,231,2.0,3.0,95,0.09,,,0.17,Wunderground v.1.15,2013-06-09 19:50:00,
2013-06-09 15:52:00,71.6,70.1,29.95,SW,231,1.0,3.0,95,0.09,,,0.17,Wunderground v.1.15,2013-06-09 19:52:00,
2013-06-09 15:53:00,71.6,70.1,29.95,SW,231,1.0,3.0,95,0.09,,,0.17,Wunderground v.1.15,2013-06-09 19:53:00,
2013-06-09 15:54:00,71.6,70.1,29.95,SW,231,1.0,3.0,95,0.09,,,0.17,Wunderground v.1.15,2013-06-09 19:54:00,
2013-06-09 15:55:00,71.5,69.7,29.94,SW,231,0.0,3.0,94,0.09,,,0.17,Wunderground v.1.15,2013-06-09 19:55:00,
2013-06-09 15:56:00,71.5,69.7,29.94,SW,230,0.0,3.0,94,0.09,,,0.17,Wunderground v.1.15,2013-06-09 19:56:00,
2013-06-09 15:57:00,71.4,69.6,29.94,SW,230,0.0,3.0,94,0.07,,,0.17,Wunderground v.1.15,2013-06-09 19:57:00,
2013-06-09 15:58:00,71.3,69.5,29.94,SW,231,0.0,3.0,94,0.06,,,0.17,Wunderground v.1.15,2013-06-09 19:58:00,
2013-06-09 15:59:00,71.3,69.5,29.94,SW,231,0.0,3.0,94,0.06,,,0.17,Wunderground v.1.15,2013-06-09 19:59:00,
2013-06-09 16:00:00,71.3,69.5,29.94,SW,231,0.0,0.0,94,0.06,,,0.17,Wunderground v.1.15,2013-06-09 20:00:00,
2013-06-09 16:02:00,71.3,69.5,29.94,SW,230,0.0,1.0,94,0.05,,,0.17,Wunderground v.1.15,2013-06-09 20:02:00,
2013-06-09 16:04:00,71.3,69.5,29.94,SW,230,0.0,1.0,94,0.04,,,0.17,Wunderground v.1.15,2013-06-09 20:04:00,
2013-06-09 16:05:00,71.3,69.8,29.94,SW,230,0.0,1.0,95,0.04,,,0.17,Wunderground v.1.15,2013-06-09 20:05:00,
2013-06-09 16:07:00,71.3,69.8,29.94,SW,230,0.0,1.0,95,0.00,,,0.17,Wunderground v.1.15,2013-06-09 20:07:00,
2013-06-09 16:08:00,71.4,69.9,29.94,SW,231,0.0,1.0,95,0.00,,,0.17,Wunderground v.1.15,2013-06-09 20:08:00,
2013-06-09 16:09:00,71.4,69.9,29.94,SW,230,0.0,1.0,95,0.00,,,0.17,Wunderground v.1.15,2013-06-09 20:09:00,
2013-06-09 16:10:00,71.5,70.0,29.94,SW,230,0.0,1.0,95,0.00,,,0.17,Wunderground v.1.15,2013-06-09 20:10:00,
2013-06-09 16:13:00,71.8,70.6,29.94,SW,230,1.0,3.0,96,0.00,,,0.17,Wunderground v.1.15,2013-06-09 20:13:00,
2013-06-09 16:14:00,71.9,70.7,29.94,SW,231,3.0,4.0,96,0.00,,,0.17,Wunderground v.1.15,2013-06-09 20:14:00,
2013-06-09 16:15:00,72.0,70.8,29.94,SW,231,1.0,4.0,96,0.00,,,0.17,Wunderground v.1.15,2013-06-09 20:15:00,
2013-06-09 16:16:00,72.1,70.9,29.94,SW,230,0.0,4.0,96,0.00,,,0.17,Wunderground v.1.15,2013-06-09 20:16:00,
2013-06-09 16:18:00,72.3,71.1,29.94,SW,230,1.0,4.0,96,0.00,,,0.17,Wunderground v.1.15,2013-06-09 20:18:00,
2013-06-09 16:19:00,72.3,71.1,29.94,SW,231,0.0,4.0,96,0.00,,,0.17,Wunderground v.1.15,2013-06-09 20:19:00,
2013-06-09 16:20:00,72.4,71.2,29.95,SW,230,0.0,1.0,96,0.00,,,0.17,Wunderground v.1.15,2013-06-09 20:20:00,
2013-06-09 16:21:00,72.4,71.2,29.95,SW,231,2.0,2.0,96,0.00,,,0.17,Wunderground v.1.15,2013-06-09 20:21:00,
2013-06-09 16:24:00,72.4,70.9,29.95,SW,230,0.0,6.0,95,0.00,,,0.17,Wunderground v.1.15,2013-06-09 20:24:00,
2013-06-09 16:26:00,72.4,70.9,29.95,SW,231,5.0,6.0,95,0.00,,,0.17,Wunderground v.1.15,2013-06-09 20:26:00,
2013-06-09 16:27:00,72.4,70.9,29.94,SW,229,2.0,7.0,95,0.00,,,0.17,Wunderground v.1.15,2013-06-09 20:27:00,
2013-06-09 16:29:00,72.4,70.6,29.94,SW,229,0.0,7.0,94,0.00,,,0.17,Wunderground v.1.15,2013-06-09 20:29:00,
2013-06-09 16:30:00,72.4,70.6,29.94,SW,229,4.0,5.0,94,0.00,,,0.17,Wunderground v.1.15,2013-06-09 20:30:00,
2013-06-09 16:32:00,72.3,70.5,29.94,SW,229,1.0,5.0,94,0.00,,,0.17,Wunderground v.1.15,2013-06-09 20:32:00,
2013-06-09 16:34:00,72.3,70.5,29.94,SW,229,0.0,5.0,94,0.00,,,0.17,Wunderground v.1.15,2013-06-09 20:34:00,
2013-06-09 16:35:00,72.3,70.5,29.94,SW,229,1.0,5.0,94,0.00,,,0.17,Wunderground v.1.15,2013-06-09 20:35:00,
2013-06-09 16:37:00,72.3,70.5,29.94,SW,229,0.0,5.0,94,0.00,,,0.17,Wunderground v.1.15,2013-06-09 20:37:00,
2013-06-09 16:38:00,72.4,70.6,29.94,SW,229,0.0,5.0,94,0.00,,,0.17,Wunderground v.1.15,2013-06-09 20:38:00,
2013-06-09 16:39:00,72.4,70.6,29.94,SW,229,0.0,1.0,94,0.00,,,0.17,Wunderground v.1.15,2013-06-09 20:39:00,
2013-06-09 16:40:00,72.4,70.6,29.94,SW,229,0.0,1.0,94,0.00,,,0.17,Wunderground v.1.15,2013-06-09 20:40:00,
2013-06-09 16:43:00,72.4,70.6,29.94,SW,229,0.0,1.0,94,0.00,,,0.17,Wunderground v.1.15,2013-06-09 20:43:00,
2013-06-09 16:44:00,72.5,70.7,29.94,SW,229,0.0,1.0,94,0.00,,,0.17,Wunderground v.1.15,2013-06-09 20:44:00,
2013-06-09 16:45:00,72.5,70.7,29.94,SW,229,1.0,2.0,94,0.00,,,0.17,Wunderground v.1.15,2013-06-09 20:45:00,
2013-06-09 16:48:00,72.6,70.8,29.94,SW,229,1.0,2.0,94,0.00,,,0.17,Wunderground v.1.15,2013-06-09 20:48:00,
2013-06-09 16:49:00,72.6,70.8,29.93,SW,229,0.0,2.0,94,0.00,,,0.17,Wunderground v.1.15,2013-06-09 20:49:00,
2013-06-09 16:50:00,72.6,70.8,29.93,SW,229,0.0,0.0,94,0.00,,,0.17,Wunderground v.1.15,2013-06-09 20:50:00,
2013-06-09 16:52:00,72.6,70.5,29.93,SW,229,0.0,1.0,93,0.00,,,0.17,Wunderground v.1.15,2013-06-09 20:52:00,
2013-06-09 16:53:00,72.6,70.5,29.93,SW,229,1.0,1.0,93,0.00,,,0.17,Wunderground v.1.15,2013-06-09 20:53:00,
2013-06-09 16:54:00,72.6,70.5,29.93,SW,229,0.0,1.0,93,0.00,,,0.17,Wunderground v.1.15,2013-06-09 20:54:00,
2013-06-09 16:55:00,72.7,70.6,29.93,SW,229,0.0,1.0,93,0.00,,,0.17,Wunderground v.1.15,2013-06-09 20:55:00,
2013-06-09 16:57:00,72.8,70.7,29.93,SW,229,0.0,2.0,93,0.00,,,0.17,Wunderground v.1.15,2013-06-09 20:57:00,
2013-06-09 16:59:00,72.9,71.1,29.93,SW,229,2.0,2.0,94,0.00,,,0.17,Wunderground v.1.15,2013-06-09 20:59:00,
2013-06-09 17:00:00,73.0,70.9,29.93,SW,229,0.0,1.0,93,0.00,,,0.17,Wunderground v.1.15,2013-06-09 21:00:00,
2013-06-09 17:02:00,73.1,71.0,29.93,SW,229,2.0,2.0,93,0.00,,,0.17,Wunderground v.1.15,2013-06-09 21:02:00,
2013-06-09 17:04:00,73.1,71.0,29.93,SW,229,0.0,2.0,93,0.00,,,0.17,Wunderground v.1.15,2013-06-09 21:04:00,
2013-06-09 17:05:00,73.1,71.0,29.93,SW,229,0.0,2.0,93,0.00,,,0.17,Wunderground v.1.15,2013-06-09 21:05:00,
2013-06-09 17:08:00,73.1,70.6,29.93,SW,229,0.0,2.0,92,0.00,,,0.17,Wunderground v.1.15,2013-06-09 21:08:00,
2013-06-09 17:09:00,73.1,70.3,29.93,SW,229,1.0,2.0,91,0.00,,,0.17,Wunderground v.1.15,2013-06-09 21:09:00,
2013-06-09 17:11:00,73.0,70.2,29.93,SW,229,2.0,2.0,91,0.00,,,0.17,Wunderground v.1.15,2013-06-09 21:11:00,
2013-06-09 17:13:00,73.0,70.5,29.93,SW,229,0.0,2.0,92,0.00,,,0.17,Wunderground v.1.15,2013-06-09 21:13:00,
2013-06-09 17:14:00,73.0,70.2,29.93,SW,229,0.0,2.0,91,0.00,,,0.17,Wunderground v.1.15,2013-06-09 21:14:00,
2013-06-09 17:15:00,73.0,70.2,29.93,SW,229,1.0,2.0,91,0.00,,,0.17,Wunderground v.1.15,2013-06-09 21:15:00,
2013-06-09 17:17:00,72.9,70.1,29.93,SW,229,0.0,2.0,91,0.00,,,0.17,Wunderground v.1.15,2013-06-09 21:17:00,
2013-06-09 17:19:00,72.9,70.4,29.93,SW,229,0.0,2.0,92,0.00,,,0.17,Wunderground v.1.15,2013-06-09 21:19:00,
2013-06-09 17:20:00,72.9,70.4,29.93,SW,229,0.0,1.0,92,0.00,,,0.17,Wunderground v.1.15,2013-06-09 21:20:00,
2013-06-09 17:22:00,72.8,70.0,29.94,SW,229,0.0,1.0,91,0.00,,,0.17,Wunderground v.1.15,2013-06-09 21:22:00,
2013-06-09 17:24:00,72.9,70.4,29.93,SW,229,0.0,1.0,92,0.00,,,0.17,Wunderground v.1.15,2013-06-09 21:24:00,
2013-06-09 17:25:00,72.9,70.4,29.93,SW,229,0.0,1.0,92,0.00,,,0.17,Wunderground v.1.15,2013-06-09 21:25:00,
2013-06-09 17:27:00,72.9,70.8,29.94,SW,229,0.0,1.0,93,0.00,,,0.17,Wunderground v.1.15,2013-06-09 21:27:00,
2013-06-09 17:29:00,73.0,70.9,29.93,SW,229,0.0,1.0,93,0.00,,,0.17,Wunderground v.1.15,2013-06-09 21:29:00,
2013-06-09 17:30:00,73.0,70.9,29.93,SW,229,0.0,0.0,93,0.00,,,0.17,Wunderground v.1.15,2013-06-09 21:30:00,
2013-06-09 17:32:00,73.1,70.6,29.93,SW,229,0.0,1.0,92,0.00,,,0.17,Wunderground v.1.15,2013-06-09 21:32:00,
2013-06-09 17:35:00,73.2,70.7,29.93,SW,229,0.0,1.0,92,0.00,,,0.17,Wunderground v.1.15,2013-06-09 21:35:00,
2013-06-09 17:37:00,73.3,71.2,29.93,SW,229,0.0,1.0,93,0.00,,,0.17,Wunderground v.1.15,2013-06-09 21:37:00,
2013-06-09 17:38:00,73.5,71.4,29.93,SW,229,0.0,1.0,93,0.00,,,0.17,Wunderground v.1.15,2013-06-09 21:38:00,
2013-06-09 17:40:00,73.6,71.4,29.92,SW,229,0.0,0.0,93,0.00,,,0.17,Wunderground v.1.15,2013-06-09 21:40:00,
2013-06-09 17:41:00,73.7,71.5,29.92,SW,229,0.0,0.0,93,0.00,,,0.17,Wunderground v.1.15,2013-06-09 21:41:00,
2013-06-09 17:42:00,73.7,71.5,29.92,SW,229,0.0,0.0,93,0.00,,,0.17,Wunderground v.1.15,2013-06-09 21:42:00,
2013-06-09 17:43:00,73.8,71.6,29.92,SW,229,0.0,0.0,93,0.00,,,0.17,Wunderground v.1.15,2013-06-09 21:43:00,
2013-06-09 17:45:00,74.0,71.8,29.92,SW,229,0.0,0.0,93,0.00,,,0.17,Wunderground v.1.15,2013-06-09 21:45:00,
2013-06-09 17:46:00,74.1,71.9,29.92,SW,229,2.0,2.0,93,0.00,,,0.17,Wunderground v.1.15,2013-06-09 21:46:00,
2013-06-09 17:47:00,74.1,71.0,29.92,SW,229,0.0,2.0,90,0.00,,,0.17,Wunderground v.1.15,2013-06-09 21:47:00,
2013-06-09 17:49:00,74.1,71.3,29.92,SW,229,0.0,2.0,91,0.00,,,0.17,Wunderground v.1.15,2013-06-09 21:49:00,
2013-06-09 17:50:00,74.2,71.7,29.92,SW,229,1.0,1.0,92,0.00,,,0.17,Wunderground v.1.15,2013-06-09 21:50:00,
2013-06-09 17:51:00,74.3,71.5,29.92,SW,229,1.0,1.0,91,0.00,,,0.17,Wunderground v.1.15,2013-06-09 21:51:00,
2013-06-09 17:53:00,74.4,71.3,29.92,SW,229,1.0,1.0,90,0.00,,,0.17,Wunderground v.1.15,2013-06-09 21:53:00,
2013-06-09 17:54:00,74.4,71.3,29.92,SW,229,0.0,1.0,90,0.00,,,0.17,Wunderground v.1.15,2013-06-09 21:54:00,
2013-06-09 17:55:00,74.4,70.9,29.92,SW,229,0.0,1.0,89,0.00,,,0.17,Wunderground v.1.15,2013-06-09 21:55:00,
2013-06-09 17:56:00,74.5,71.0,29.92,SW,229,0.0,1.0,89,0.00,,,0.17,Wunderground v.1.15,2013-06-09 21:56:00,
2013-06-09 17:57:00,74.6,71.5,29.92,SW,229,0.0,1.0,90,0.00,,,0.17,Wunderground v.1.15,2013-06-09 21:57:00,
2013-06-09 17:59:00,74.6,71.1,29.92,SW,229,0.0,1.0,89,0.00,,,0.17,Wunderground v.1.15,2013-06-09 21:59:00,
2013-06-09 18:00:00,74.7,71.2,29.92,SW,229,0.0,0.0,89,0.00,,,0.17,Wunderground v.1.15,2013-06-09 22:00:00,
2013-06-09 18:02:00,74.7,71.2,29.92,SW,229,1.0,1.0,89,0.00,,,0.17,Wunderground v.1.15,2013-06-09 22:02:00,
2013-06-09 18:04:00,74.8,71.3,29.91,SW,229,0.0,3.0,89,0.00,,,0.17,Wunderground v.1.15,2013-06-09 22:04:00,
2013-06-09 18:05:00,74.8,71.3,29.91,SW,229,0.0,3.0,89,0.00,,,0.17,Wunderground v.1.15,2013-06-09 22:05:00,
2013-06-09 18:07:00,75.0,72.2,29.92,SW,229,0.0,3.0,91,0.00,,,0.17,Wunderground v.1.15,2013-06-09 22:07:00,
2013-06-09 18:09:00,75.0,72.2,29.92,SW,229,1.0,1.0,91,0.00,,,0.17,Wunderground v.1.15,2013-06-09 22:09:00,
2013-06-09 18:10:00,75.0,72.2,29.92,SW,229,0.0,1.0,91,0.00,,,0.17,Wunderground v.1.15,2013-06-09 22:10:00,
2013-06-09 18:12:00,74.9,71.8,29.92,SW,229,0.0,1.0,90,0.00,,,0.17,Wunderground v.1.15,2013-06-09 22:12:00,
2013-06-09 18:13:00,74.9,71.8,29.92,SW,229,1.0,1.0,90,0.00,,,0.17,Wunderground v.1.15,2013-06-09 22:13:00,
2013-06-09 18:15:00,74.9,71.8,29.92,SW,229,2.0,2.0,90,0.00,,,0.17,Wunderground v.1.15,2013-06-09 22:15:00,
2013-06-09 18:16:00,74.9,71.4,29.92,SW,229,1.0,2.0,89,0.00,,,0.17,Wunderground v.1.15,2013-06-09 22:16:00,
2013-06-09 18:18:00,74.8,71.0,29.92,SW,229,1.0,2.0,88,0.00,,,0.17,Wunderground v.1.15,2013-06-09 22:18:00,
2013-06-09 18:20:00,74.8,71.3,29.91,SW,229,0.0,1.0,89,0.00,,,0.17,Wunderground v.1.15,2013-06-09 22:20:00,
2013-06-09 18:21:00,74.8,71.7,29.92,SW,229,0.0,1.0,90,0.00,,,0.17,Wunderground v.1.15,2013-06-09 22:21:00,
2013-06-09 18:23:00,74.9,72.1,29.91,SW,229,0.0,1.0,91,0.00,,,0.17,Wunderground v.1.15,2013-06-09 22:23:00,
2013-06-09 18:25:00,74.9,71.8,29.91,SW,229,1.0,2.0,90,0.00,,,0.17,Wunderground v.1.15,2013-06-09 22:25:00,
2013-06-09 18:26:00,74.9,71.8,29.91,SW,229,1.0,2.0,90,0.00,,,0.17,Wunderground v.1.15,2013-06-09 22:26:00,
2013-06-09 18:29:00,74.9,71.8,29.92,SW,229,0.0,2.0,90,0.00,,,0.17,Wunderground v.1.15,2013-06-09 22:29:00,
2013-06-09 18:30:00,74.9,71.8,29.92,SW,229,0.0,0.0,90,0.00,,,0.17,Wunderground v.1.15,2013-06-09 22:30:00,
2013-06-09 18:31:00,74.9,71.8,29.92,SW,229,1.0,1.0,90,0.00,,,0.17,Wunderground v.1.15,2013-06-09 22:31:00,
2013-06-09 18:34:00,74.9,71.8,29.92,SW,229,0.0,2.0,90,0.00,,,0.17,Wunderground v.1.15,2013-06-09 22:34:00,
2013-06-09 18:35:00,74.9,71.8,29.92,SW,229,0.0,2.0,90,0.00,,,0.17,Wunderground v.1.15,2013-06-09 22:35:00,
2013-06-09 18:36:00,74.8,71.3,29.92,SW,229,0.0,2.0,89,0.00,,,0.17,Wunderground v.1.15,2013-06-09 22:36:00,
2013-06-09 18:39:00,74.8,71.3,29.91,SW,229,0.0,0.0,89,0.00,,,0.17,Wunderground v.1.15,2013-06-09 22:39:00,
2013-06-09 18:40:00,74.8,71.3,29.91,SW,229,0.0,0.0,89,0.00,,,0.17,Wunderground v.1.15,2013-06-09 22:40:00,
2013-06-09 18:41:00,74.8,71.7,29.92,SW,229,0.0,0.0,90,0.00,,,0.17,Wunderground v.1.15,2013-06-09 22:41:00,
2013-06-09 18:42:00,74.8,71.7,29.92,SW,229,0.0,0.0,90,0.00,,,0.17,Wunderground v.1.15,2013-06-09 22:42:00,
2013-06-09 18:44:00,74.8,71.7,29.91,SW,229,0.0,0.0,90,0.00,,,0.17,Wunderground v.1.15,2013-06-09 22:44:00,
2013-06-09 18:45:00,74.8,71.7,29.91,SW,229,0.0,0.0,90,0.00,,,0.17,Wunderground v.1.15,2013-06-09 22:45:00,
2013-06-09 18:46:00,74.8,71.7,29.91,SW,229,0.0,0.0,90,0.00,,,0.17,Wunderground v.1.15,2013-06-09 22:46:00,
2013-06-09 18:47:00,74.8,72.0,29.91,SW,229,0.0,0.0,91,0.00,,,0.17,Wunderground v.1.15,2013-06-09 22:47:00,
2013-06-09 18:49:00,74.7,70.9,29.91,SW,229,0.0,1.0,88,0.00,,,0.17,Wunderground v.1.15,2013-06-09 22:49:00,
2013-06-09 18:50:00,74.7,70.6,29.92,SW,229,1.0,2.0,87,0.00,,,0.17,Wunderground v.1.15,2013-06-09 22:50:00,
2013-06-09 18:51:00,74.7,70.6,29.92,SW,229,0.0,2.0,87,0.00,,,0.17,Wunderground v.1.15,2013-06-09 22:51:00,
2013-06-09 18:52:00,74.7,70.9,29.92,SW,229,1.0,2.0,88,0.00,,,0.17,Wunderground v.1.15,2013-06-09 22:52:00,
2013-06-09 18:54:00,74.6,70.8,29.92,SW,229,0.0,2.0,88,0.00,,,0.17,Wunderground v.1.15,2013-06-09 22:54:00,
2013-06-09 18:55:00,74.5,70.7,29.92,SW,229,1.0,2.0,88,0.00,,,0.17,Wunderground v.1.15,2013-06-09 22:55:00,
2013-06-09 18:57:00,74.4,70.3,29.92,SW,229,2.0,3.0,87,0.00,,,0.17,Wunderground v.1.15,2013-06-09 22:57:00,
2013-06-09 18:58:00,74.4,70.6,29.92,SW,229,0.0,3.0,88,0.00,,,0.17,Wunderground v.1.15,2013-06-09 22:58:00,
2013-06-09 19:00:00,74.4,70.3,29.92,SW,229,1.0,2.0,87,0.00,,,0.17,Wunderground v.1.15,2013-06-09 23:00:00,
2013-06-09 19:02:00,74.3,69.8,29.92,SW,229,4.0,4.0,86,0.00,,,0.17,Wunderground v.1.15,2013-06-09 23:02:00,
2013-06-09 19:03:00,74.3,69.8,29.92,SW,229,2.0,4.0,86,0.00,,,0.17,Wunderground v.1.15,2013-06-09 23:03:00,
2013-06-09 19:05:00,74.3,70.2,29.92,SW,229,0.0,4.0,87,0.00,,,0.17,Wunderground v.1.15,2013-06-09 23:05:00,
2013-06-09 19:07:00,74.4,70.6,29.92,SW,229,0.0,4.0,88,0.00,,,0.17,Wunderground v.1.15,2013-06-09 23:07:00,
2013-06-09 19:08:00,74.4,70.9,29.92,SW,229,0.0,4.0,89,0.00,,,0.17,Wunderground v.1.15,2013-06-09 23:08:00,
2013-06-09 19:10:00,74.4,70.3,29.92,SW,229,2.0,5.0,87,0.00,,,0.17,Wunderground v.1.15,2013-06-09 23:10:00,
2013-06-09 19:12:00,74.4,70.6,29.92,SW,229,0.0,5.0,88,0.00,,,0.17,Wunderground v.1.15,2013-06-09 23:12:00,
2013-06-09 19:13:00,74.4,70.6,29.92,SW,229,0.0,5.0,88,0.00,,,0.17,Wunderground v.1.15,2013-06-09 23:13:00,
2013-06-09 19:14:00,74.3,70.5,29.92,SW,229,0.0,5.0,88,0.00,,,0.17,Wunderground v.1.15,2013-06-09 23:14:00,
2013-06-09 19:16:00,74.3,70.5,29.92,SW,229,3.0,5.0,88,0.00,,,0.17,Wunderground v.1.15,2013-06-09 23:16:00,
2013-06-09 19:17:00,74.3,70.5,29.92,SW,229,0.0,5.0,88,0.00,,,0.17,Wunderground v.1.15,2013-06-09 23:17:00,
2013-06-09 19:18:00,74.3,70.5,29.92,SW,229,0.0,5.0,88,0.00,,,0.17,Wunderground v.1.15,2013-06-09 23:18:00,
2013-06-09 19:19:00,74.2,70.4,29.92,SW,229,0.0,5.0,88,0.00,,,0.17,Wunderground v.1.15,2013-06-09 23:19:00,
2013-06-09 19:21:00,74.2,69.7,29.92,SW,229,1.0,4.0,86,0.00,,,0.17,Wunderground v.1.15,2013-06-09 23:21:00,
2013-06-09 19:22:00,74.2,70.1,29.92,SW,229,0.0,4.0,87,0.00,,,0.17,Wunderground v.1.15,2013-06-09 23:22:00,
2013-06-09 19:23:00,74.2,70.4,29.92,SW,229,0.0,4.0,88,0.00,,,0.17,Wunderground v.1.15,2013-06-09 23:23:00,
2013-06-09 19:24:00,74.2,70.4,29.92,SW,229,0.0,4.0,88,0.00,,,0.17,Wunderground v.1.15,2013-06-09 23:24:00,
2013-06-09 19:25:00,74.2,70.4,29.92,SW,229,0.0,4.0,88,0.00,,,0.17,Wunderground v.1.15,2013-06-09 23:25:00,
2013-06-09 19:27:00,74.2,70.7,29.92,SW,229,0.0,4.0,89,0.00,,,0.17,Wunderground v.1.15,2013-06-09 23:27:00,
2013-06-09 19:28:00,74.2,70.7,29.92,SW,229,1.0,4.0,89,0.00,,,0.17,Wunderground v.1.15,2013-06-09 23:28:00,
2013-06-09 19:29:00,74.2,70.7,29.92,SW,229,1.0,4.0,89,0.00,,,0.17,Wunderground v.1.15,2013-06-09 23:29:00,
2013-06-09 19:30:00,74.2,70.4,29.92,SW,229,0.0,0.0,88,0.00,,,0.17,Wunderground v.1.15,2013-06-09 23:30:00,
2013-06-09 19:32:00,74.2,70.4,29.92,SW,229,0.0,1.0,88,0.00,,,0.17,Wunderground v.1.15,2013-06-09 23:32:00,
2013-06-09 19:33:00,74.2,70.4,29.92,SW,229,0.0,1.0,88,0.00,,,0.17,Wunderground v.1.15,2013-06-09 23:33:00,
2013-06-09 19:34:00,74.2,70.7,29.92,SW,229,0.0,1.0,89,0.00,,,0.17,Wunderground v.1.15,2013-06-09 23:34:00,
2013-06-09 19:35:00,74.2,70.7,29.92,SW,229,0.0,1.0,89,0.00,,,0.17,Wunderground v.1.15,2013-06-09 23:35:00,
2013-06-09 19:38:00,74.2,70.7,29.92,SW,229,0.0,1.0,89,0.00,,,0.17,Wunderground v.1.15,2013-06-09 23:38:00,
2013-06-09 19:39:00,74.1,70.6,29.92,SW,229,0.0,1.0,89,0.00,,,0.17,Wunderground v.1.15,2013-06-09 23:39:00,
2013-06-09 19:40:00,74.1,70.6,29.92,SW,229,0.0,0.0,89,0.00,,,0.17,Wunderground v.1.15,2013-06-09 23:40:00,
2013-06-09 19:41:00,74.1,71.0,29.92,SW,229,0.0,0.0,90,0.00,,,0.17,Wunderground v.1.15,2013-06-09 23:41:00,
2013-06-09 19:44:00,74.0,70.6,29.92,SW,229,0.0,0.0,89,0.00,,,0.17,Wunderground v.1.15,2013-06-09 23:44:00,
2013-06-09 19:45:00,74.0,70.6,29.92,SW,229,1.0,2.0,89,0.00,,,0.17,Wunderground v.1.15,2013-06-09 23:45:00,
2013-06-09 19:47:00,73.9,70.5,29.92,SW,229,0.0,2.0,89,0.00,,,0.17,Wunderground v.1.15,2013-06-09 23:47:00,
2013-06-09 19:49:00,73.9,70.5,29.92,SW,229,0.0,2.0,89,0.00,,,0.17,Wunderground v.1.15,2013-06-09 23:49:00,
2013-06-09 19:50:00,73.9,70.8,29.92,SW,229,0.0,0.0,90,0.00,,,0.17,Wunderground v.1.15,2013-06-09 23:50:00,
2013-06-09 19:52:00,73.8,70.7,29.92,SW,229,0.0,2.0,90,0.00,,,0.17,Wunderground v.1.15,2013-06-09 23:52:00,
2013-06-09 19:54:00,73.7,70.6,29.92,SW,229,1.0,2.0,90,0.00,,,0.17,Wunderground v.1.15,2013-06-09 23:54:00,
2013-06-09 19:55:00,73.7,70.3,29.92,SW,229,1.0,2.0,89,0.00,,,0.17,Wunderground v.1.15,2013-06-09 23:55:00,
2013-06-09 19:58:00,73.5,70.1,29.92,SW,229,1.0,2.0,89,0.00,,,0.17,Wunderground v.1.15,2013-06-09 23:58:00,
2013-06-09 19:59:00,73.5,70.1,29.92,SW,229,0.0,2.0,89,0.00,,,0.17,Wunderground v.1.15,2013-06-09 23:59:00,
2013-06-09 20:00:00,73.5,70.4,29.92,SW,229,2.0,5.0,90,0.00,,,0.17,Wunderground v.1.15,2013-06-10 00:00:00,
2013-06-09 20:01:00,73.5,69.7,29.92,SW,229,2.0,5.0,88,0.00,,,0.17,Wunderground v.1.15,2013-06-10 00:01:00,
2013-06-09 20:03:00,73.5,70.1,29.93,SW,229,0.0,5.0,89,0.00,,,0.17,Wunderground v.1.15,2013-06-10 00:03:00,
2013-06-09 20:05:00,73.5,70.1,29.92,SW,229,0.0,5.0,89,0.00,,,0.17,Wunderground v.1.15,2013-06-10 00:05:00,
2013-06-09 20:07:00,73.5,70.1,29.92,SW,229,0.0,5.0,89,0.00,,,0.17,Wunderground v.1.15,2013-06-10 00:07:00,
2013-06-09 20:08:00,73.5,70.1,29.92,SW,229,0.0,5.0,89,0.00,,,0.17,Wunderground v.1.15,2013-06-10 00:08:00,
2013-06-09 20:10:00,73.5,70.4,29.92,SW,229,0.0,1.0,90,0.00,,,0.17,Wunderground v.1.15,2013-06-10 00:10:00,
2013-06-09 20:12:00,73.5,70.4,29.92,SW,229,0.0,1.0,90,0.00,,,0.17,Wunderground v.1.15,2013-06-10 00:12:00,
2013-06-09 20:13:00,73.5,70.4,29.92,SW,229,0.0,1.0,90,0.00,,,0.17,Wunderground v.1.15,2013-06-10 00:13:00,
2013-06-09 20:16:00,73.5,70.4,29.92,SW,229,0.0,1.0,90,0.00,,,0.17,Wunderground v.1.15,2013-06-10 00:16:00,
2013-06-09 20:17:00,73.5,70.7,29.92,SW,229,0.0,1.0,91,0.00,,,0.17,Wunderground v.1.15,2013-06-10 00:17:00,
2013-06-09 20:19:00,73.4,70.6,29.92,SW,229,0.0,1.0,91,0.00,,,0.17,Wunderground v.1.15,2013-06-10 00:19:00,
2013-06-09 20:21:00,73.4,70.6,29.92,SW,229,0.0,0.0,91,0.00,,,0.17,Wunderground v.1.15,2013-06-10 00:21:00,
2013-06-09 20:22:00,73.3,70.5,29.92,SW,229,0.0,0.0,91,0.00,,,0.17,Wunderground v.1.15,2013-06-10 00:22:00,
2013-06-09 20:23:00,73.3,70.5,29.92,SW,229,0.0,0.0,91,0.00,,,0.17,Wunderground v.1.15,2013-06-10 00:23:00,
2013-06-09 20:24:00,73.3,70.2,29.92,SW,229,0.0,0.0,90,0.00,,,0.17,Wunderground v.1.15,2013-06-10 00:24:00,
2013-06-09 20:27:00,73.1,70.0,29.92,SW,229,0.0,0.0,90,0.00,,,0.17,Wunderground v.1.15,2013-06-10 00:27:00,
2013-06-09 20:28:00,73.0,69.9,29.92,SW,229,0.0,0.0,90,0.00,,,0.17,Wunderground v.1.15,2013-06-10 00:28:00,
2013-06-09 20:29:00,73.0,69.9,29.92,SW,229,0.0,0.0,90,0.00,,,0.17,Wunderground v.1.15,2013-06-10 00:29:00,
2013-06-09 20:32:00,72.9,70.1,29.92,SW,229,0.0,0.0,91,0.00,,,0.17,Wunderground v.1.15,2013-06-10 00:32:00,
2013-06-09 20:33:00,72.8,70.0,29.92,SW,229,0.0,0.0,91,0.00,,,0.17,Wunderground v.1.15,2013-06-10 00:33:00,
2013-06-09 20:34:00,72.8,70.0,29.92,SW,229,0.0,0.0,91,0.00,,,0.17,Wunderground v.1.15,2013-06-10 00:34:00,
2013-06-09 20:37:00,72.7,69.9,29.92,SW,229,0.0,0.0,91,0.00,,,0.17,Wunderground v.1.15,2013-06-10 00:37:00,
2013-06-09 20:38:00,72.7,69.9,29.92,SW,229,0.0,0.0,91,0.00,,,0.17,Wunderground v.1.15,2013-06-10 00:38:00,
2013-06-09 20:40:00,72.6,69.8,29.92,SW,229,0.0,0.0,91,0.00,,,0.17,Wunderground v.1.15,2013-06-10 00:40:00,
2013-06-09 20:41:00,72.6,69.8,29.92,SW,229,0.0,0.0,91,0.00,,,0.17,Wunderground v.1.15,2013-06-10 00:41:00,
2013-06-09 20:43:00,72.6,69.8,29.92,SW,229,0.0,0.0,91,0.00,,,0.17,Wunderground v.1.15,2013-06-10 00:43:00,
2013-06-09 20:45:00,72.5,69.7,29.92,SW,229,0.0,0.0,91,0.00,,,0.17,Wunderground v.1.15,2013-06-10 00:45:00,
2013-06-09 20:46:00,72.5,70.0,29.92,SW,229,0.0,0.0,92,0.00,,,0.17,Wunderground v.1.15,2013-06-10 00:46:00,
2013-06-09 20:48:00,72.5,70.0,29.92,SW,229,0.0,0.0,92,0.00,,,0.17,Wunderground v.1.15,2013-06-10 00:48:00,
2013-06-09 20:50:00,72.4,69.9,29.92,SW,229,0.0,0.0,92,0.00,,,0.17,Wunderground v.1.15,2013-06-10 00:50:00,
2013-06-09 20:51:00,72.4,69.9,29.92,SW,229,0.0,0.0,92,0.00,,,0.17,Wunderground v.1.15,2013-06-10 00:51:00,
2013-06-09 20:52:00,72.4,69.9,29.92,SW,229,0.0,0.0,92,0.00,,,0.17,Wunderground v.1.15,2013-06-10 00:52:00,
2013-06-09 20:53:00,72.4,69.9,29.92,SW,229,0.0,0.0,92,0.00,,,0.17,Wunderground v.1.15,2013-06-10 00:53:00,
2013-06-09 20:54:00,72.4,69.9,29.92,SW,229,0.0,0.0,92,0.00,,,0.17,Wunderground v.1.15,2013-06-10 00:54:00,
2013-06-09 20:56:00,72.3,70.2,29.92,SW,229,0.0,0.0,93,0.00,,,0.17,Wunderground v.1.15,2013-06-10 00:56:00,
2013-06-09 20:57:00,72.3,70.2,29.92,SW,229,0.0,0.0,93,0.00,,,0.17,Wunderground v.1.15,2013-06-10 00:57:00,
2013-06-09 20:58:00,72.3,70.2,29.92,SW,229,0.0,0.0,93,0.00,,,0.17,Wunderground v.1.15,2013-06-10 00:58:00,
2013-06-09 21:00:00,72.2,70.1,29.92,SW,229,0.0,0.0,93,0.00,,,0.17,Wunderground v.1.15,2013-06-10 01:00:00,
2013-06-09 21:02:00,72.2,70.1,29.92,SW,229,0.0,0.0,93,0.00,,,0.17,Wunderground v.1.15,2013-06-10 01:02:00,
2013-06-09 21:03:00,72.2,70.1,29.92,SW,229,0.0,0.0,93,0.00,,,0.17,Wunderground v.1.15,2013-06-10 01:03:00,
2013-06-09 21:05:00,72.1,70.0,29.92,SW,229,0.0,1.0,93,0.00,,,0.17,Wunderground v.1.15,2013-06-10 01:05:00,
2013-06-09 21:07:00,72.1,70.0,29.92,SW,229,1.0,1.0,93,0.00,,,0.17,Wunderground v.1.15,2013-06-10 01:07:00,
2013-06-09 21:08:00,72.1,70.0,29.92,SW,229,0.0,2.0,93,0.00,,,0.17,Wunderground v.1.15,2013-06-10 01:08:00,
2013-06-09 21:11:00,72.0,69.9,29.92,SW,229,0.0,1.0,93,0.00,,,0.17,Wunderground v.1.15,2013-06-10 01:11:00,
2013-06-09 21:12:00,72.0,69.9,29.91,SW,229,0.0,1.0,93,0.00,,,0.17,Wunderground v.1.15,2013-06-10 01:12:00,
2013-06-09 21:13:00,72.0,69.9,29.91,SW,229,0.0,1.0,93,0.00,,,0.17,Wunderground v.1.15,2013-06-10 01:13:00,
2013-06-09 21:14:00,72.0,69.9,29.91,SW,229,1.0,1.0,93,0.00,,,0.17,Wunderground v.1.15,2013-06-10 01:14:00,
2013-06-09 21:16:00,71.9,70.1,29.91,SW,229,0.0,2.0,94,0.00,,,0.17,Wunderground v.1.15,2013-06-10 01:16:00,
2013-06-09 21:17:00,71.9,70.1,29.91,SW,229,0.0,2.0,94,0.00,,,0.17,Wunderground v.1.15,2013-06-10 01:17:00,
2013-06-09 21:18:00,71.9,70.1,29.91,SW,229,0.0,2.0,94,0.00,,,0.17,Wunderground v.1.15,2013-06-10 01:18:00,
2013-06-09 21:19:00,71.8,70.0,29.91,SW,229,0.0,2.0,94,0.00,,,0.17,Wunderground v.1.15,2013-06-10 01:19:00,
2013-06-09 21:21:00,71.8,70.0,29.91,SW,229,0.0,0.0,94,0.00,,,0.17,Wunderground v.1.15,2013-06-10 01:21:00,
2013-06-09 21:23:00,71.7,69.9,29.91,SW,229,0.0,1.0,94,0.00,,,0.17,Wunderground v.1.15,2013-06-10 01:23:00,
2013-06-09 21:24:00,71.7,69.9,29.90,SW,229,0.0,2.0,94,0.00,,,0.17,Wunderground v.1.15,2013-06-10 01:24:00,
2013-06-09 21:25:00,71.7,69.9,29.90,SW,229,1.0,2.0,94,0.00,,,0.17,Wunderground v.1.15,2013-06-10 01:25:00,
2013-06-09 21:27:00,71.6,69.8,29.90,SW,229,1.0,2.0,94,0.00,,,0.17,Wunderground v.1.15,2013-06-10 01:27:00,
2013-06-09 21:28:00,71.6,69.8,29.90,SW,229,1.0,2.0,94,0.00,,,0.17,Wunderground v.1.15,2013-06-10 01:28:00,
2013-06-09 21:29:00,71.6,69.8,29.90,SW,229,0.0,2.0,94,0.00,,,0.17,Wunderground v.1.15,2013-06-10 01:29:00,
2013-06-09 21:30:00,71.5,69.7,29.90,SW,229,0.0,1.0,94,0.00,,,0.17,Wunderground v.1.15,2013-06-10 01:30:00,
2013-06-09 21:32:00,71.5,69.7,29.90,SW,229,0.0,1.0,94,0.00,,,0.17,Wunderground v.1.15,2013-06-10 01:32:00,
2013-06-09 21:34:00,71.5,69.7,29.90,SW,229,0.0,2.0,94,0.00,,,0.17,Wunderground v.1.15,2013-06-10 01:34:00,
2013-06-09 21:35:00,71.3,69.5,29.90,SW,229,2.0,3.0,94,0.00,,,0.17,Wunderground v.1.15,2013-06-10 01:35:00,
2013-06-09 21:37:00,71.3,69.5,29.90,SW,229,0.0,3.0,94,0.00,,,0.17,Wunderground v.1.15,2013-06-10 01:37:00,
2013-06-09 21:39:00,71.3,69.5,29.90,SW,229,0.0,3.0,94,0.00,,,0.17,Wunderground v.1.15,2013-06-10 01:39:00,
2013-06-09 21:40:00,71.3,69.5,29.90,SW,229,0.0,0.0,94,0.00,,,0.17,Wunderground v.1.15,2013-06-10 01:40:00,
2013-06-09 21:41:00,71.3,69.5,29.90,SW,229,0.0,1.0,94,0.00,,,0.17,Wunderground v.1.15,2013-06-10 01:41:00,
2013-06-09 21:42:00,71.3,69.5,29.90,SW,229,0.0,1.0,94,0.00,,,0.17,Wunderground v.1.15,2013-06-10 01:42:00,
2013-06-09 21:44:00,71.3,69.8,29.90,SW,229,0.0,1.0,95,0.00,,,0.17,Wunderground v.1.15,2013-06-10 01:44:00,
2013-06-09 21:45:00,71.3,69.8,29.90,SW,229,0.0,1.0,95,0.00,,,0.17,Wunderground v.1.15,2013-06-10 01:45:00,
2013-06-09 21:46:00,71.3,69.8,29.90,SW,229,0.0,1.0,95,0.00,,,0.17,Wunderground v.1.15,2013-06-10 01:46:00,
2013-06-09 21:47:00,71.2,69.4,29.90,SW,229,0.0,1.0,94,0.00,,,0.17,Wunderground v.1.15,2013-06-10 01:47:00,
2013-06-09 21:50:00,71.2,69.7,29.90,SW,229,0.0,0.0,95,0.00,,,0.17,Wunderground v.1.15,2013-06-10 01:50:00,
2013-06-09 21:51:00,71.1,69.3,29.90,SW,229,0.0,0.0,94,0.00,,,0.17,Wunderground v.1.15,2013-06-10 01:51:00,
2013-06-09 21:52:00,71.1,69.3,29.90,SW,229,0.0,0.0,94,0.00,,,0.17,Wunderground v.1.15,2013-06-10 01:52:00,
2013-06-09 21:55:00,71.1,69.6,29.90,SW,229,1.0,1.0,95,0.00,,,0.17,Wunderground v.1.15,2013-06-10 01:55:00,
2013-06-09 21:57:00,71.1,69.6,29.90,SW,229,0.0,2.0,95,0.00,,,0.17,Wunderground v.1.15,2013-06-10 01:57:00,
2013-06-09 21:58:00,71.1,69.6,29.90,SW,229,0.0,2.0,95,0.00,,,0.17,Wunderground v.1.15,2013-06-10 01:58:00,
2013-06-09 22:00:00,71.1,69.6,29.90,SW,229,0.0,1.0,95,0.00,,,0.17,Wunderground v.1.15,2013-06-10 02:00:00,
2013-06-09 22:02:00,71.0,69.5,29.90,SW,229,2.0,3.0,95,0.00,,,0.17,Wunderground v.1.15,2013-06-10 02:02:00,
2013-06-09 22:04:00,71.0,69.5,29.90,SW,229,2.0,3.0,95,0.00,,,0.17,Wunderground v.1.15,2013-06-10 02:04:00,
2013-06-09 22:06:00,71.0,69.5,29.91,SW,229,0.0,3.0,95,0.00,,,0.17,Wunderground v.1.15,2013-06-10 02:06:00,
2013-06-09 22:08:00,71.0,69.5,29.91,SW,229,0.0,3.0,95,0.00,,,0.17,Wunderground v.1.15,2013-06-10 02:08:00,
2013-06-09 22:09:00,71.0,69.5,29.91,SW,229,1.0,3.0,95,0.00,,,0.17,Wunderground v.1.15,2013-06-10 02:09:00,
2013-06-09 22:11:00,71.0,69.5,29.91,SW,229,0.0,1.0,95,0.00,,,0.17,Wunderground v.1.15,2013-06-10 02:11:00,
2013-06-09 22:12:00,71.0,69.5,29.91,SW,229,1.0,2.0,95,0.00,,,0.17,Wunderground v.1.15,2013-06-10 02:12:00,
2013-06-09 22:13:00,71.0,69.2,29.91,SW,229,0.0,2.0,94,0.00,,,0.17,Wunderground v.1.15,2013-06-10 02:13:00,
2013-06-09 22:14:00,71.0,69.2,29.91,SW,229,1.0,2.0,94,0.00,,,0.17,Wunderground v.1.15,2013-06-10 02:14:00,
2013-06-09 22:16:00,71.0,69.2,29.91,SW,229,2.0,3.0,94,0.00,,,0.17,Wunderground v.1.15,2013-06-10 02:16:00,
2013-06-09 22:17:00,71.0,69.2,29.91,SW,229,1.0,3.0,94,0.00,,,0.17,Wunderground v.1.15,2013-06-10 02:17:00,
2013-06-09 22:18:00,71.0,69.2,29.91,SW,229,0.0,3.0,94,0.00,,,0.17,Wunderground v.1.15,2013-06-10 02:18:00,
2013-06-09 22:19:00,71.0,69.2,29.91,SW,229,0.0,1.0,94,0.00,,,0.17,Wunderground v.1.15,2013-06-10 02:19:00,
2013-06-09 22:21:00,71.0,69.2,29.91,SW,229,1.0,2.0,94,0.00,,,0.17,Wunderground v.1.15,2013-06-10 02:21:00,
2013-06-09 22:22:00,71.0,69.2,29.91,SW,229,0.0,2.0,94,0.00,,,0.17,Wunderground v.1.15,2013-06-10 02:22:00,
2013-06-09 22:23:00,71.0,69.2,29.91,SW,229,0.0,2.0,94,0.00,,,0.17,Wunderground v.1.15,2013-06-10 02:23:00,
2013-06-09 22:25:00,71.0,69.2,29.91,SW,229,1.0,2.0,94,0.00,,,0.17,Wunderground v.1.15,2013-06-10 02:25:00,
2013-06-09 22:26:00,71.0,69.2,29.91,SW,229,0.0,2.0,94,0.00,,,0.17,Wunderground v.1.15,2013-06-10 02:26:00,
2013-06-09 22:27:00,71.0,69.2,29.91,SW,229,1.0,2.0,94,0.00,,,0.17,Wunderground v.1.15,2013-06-10 02:27:00,
2013-06-09 22:28:00,71.0,69.2,29.91,SW,229,1.0,2.0,94,0.00,,,0.17,Wunderground v.1.15,2013-06-10 02:28:00,
2013-06-09 22:30:00,71.0,69.2,29.91,SW,229,0.0,0.0,94,0.00,,,0.17,Wunderground v.1.15,2013-06-10 02:30:00,
2013-06-09 22:31:00,71.1,69.3,29.91,SW,229,1.0,1.0,94,0.00,,,0.17,Wunderground v.1.15,2013-06-10 02:31:00,
2013-06-09 22:32:00,71.1,69.3,29.91,SW,229,1.0,3.0,94,0.00,,,0.17,Wunderground v.1.15,2013-06-10 02:32:00,
2013-06-09 22:33:00,71.1,69.3,29.91,SW,229,0.0,3.0,94,0.00,,,0.17,Wunderground v.1.15,2013-06-10 02:33:00,
2013-06-09 22:35:00,71.1,69.0,29.91,SW,229,0.0,3.0,93,0.00,,,0.17,Wunderground v.1.15,2013-06-10 02:35:00,
2013-06-09 22:37:00,71.2,69.1,29.91,SW,229,0.0,3.0,93,0.00,,,0.17,Wunderground v.1.15,2013-06-10 02:37:00,
2013-06-09 22:38:00,71.2,69.1,29.91,SW,229,1.0,3.0,93,0.00,,,0.17,Wunderground v.1.15,2013-06-10 02:38:00,
2013-06-09 22:39:00,71.2,69.1,29.91,SW,229,1.0,4.0,93,0.00,,,0.17,Wunderground v.1.15,2013-06-10 02:39:00,
2013-06-09 22:40:00,71.3,69.2,29.91,SW,229,0.0,1.0,93,0.00,,,0.17,Wunderground v.1.15,2013-06-10 02:40:00,
2013-06-09 22:43:00,71.3,69.2,29.91,SW,229,0.0,4.0,93,0.00,,,0.17,Wunderground v.1.15,2013-06-10 02:43:00,
2013-06-09 22:44:00,71.3,69.2,29.91,SW,229,2.0,4.0,93,0.00,,,0.17,Wunderground v.1.15,2013-06-10 02:44:00,
2013-06-09 22:45:00,71.5,69.4,29.91,SW,229,1.0,4.0,93,0.00,,,0.17,Wunderground v.1.15,2013-06-10 02:45:00,
2013-06-09 22:48:00,71.5,69.4,29.92,SW,229,2.0,5.0,93,0.00,,,0.17,Wunderground v.1.15,2013-06-10 02:48:00,
2013-06-09 22:49:00,71.5,69.1,29.92,SW,221,2.0,9.0,92,0.00,,,0.17,Wunderground v.1.15,2013-06-10 02:49:00,
2013-06-09 22:50:00,71.6,69.2,29.91,SW,221,2.0,2.0,92,0.00,,,0.17,Wunderground v.1.15,2013-06-10 02:50:00,
2013-06-09 22:51:00,71.6,69.2,29.91,SW,221,4.0,5.0,92,0.00,,,0.17,Wunderground v.1.15,2013-06-10 02:51:00,
2013-06-09 22:53:00,71.7,68.9,29.91,SW,221,2.0,6.0,91,0.00,,,0.17,Wunderground v.1.15,2013-06-10 02:53:00,
2013-06-09 22:54:00,71.9,69.1,29.91,SW,221,0.0,6.0,91,0.00,,,0.17,Wunderground v.1.15,2013-06-10 02:54:00,
2013-06-09 22:55:00,71.9,69.1,29.91,SW,221,4.0,6.0,91,0.00,,,0.17,Wunderground v.1.15,2013-06-10 02:55:00,
2013-06-09 22:56:00,71.9,69.1,29.91,SW,221,4.0,6.0,91,0.00,,,0.17,Wunderground v.1.15,2013-06-10 02:56:00,
2013-06-09 22:58:00,72.1,69.3,29.91,SW,221,4.0,6.0,91,0.00,,,0.17,Wunderground v.1.15,2013-06-10 02:58:00,
2013-06-09 23:00:00,72.1,69.3,29.91,SW,221,4.0,5.0,91,0.00,,,0.17,Wunderground v.1.15,2013-06-10 03:00:00,
2013-06-09 23:02:00,72.2,69.1,29.91,SW,221,2.0,5.0,90,0.00,,,0.17,Wunderground v.1.15,2013-06-10 03:02:00,
2013-06-09 23:03:00,72.2,69.1,29.91,SW,221,0.0,5.0,90,0.00,,,0.17,Wunderground v.1.15,2013-06-10 03:03:00,
2013-06-09 23:05:00,72.3,69.2,29.91,SW,221,2.0,5.0,90,0.00,,,0.17,Wunderground v.1.15,2013-06-10 03:05:00,
2013-06-09 23:07:00,72.4,69.3,29.90,SW,221,3.0,5.0,90,0.00,,,0.17,Wunderground v.1.15,2013-06-10 03:07:00,
2013-06-09 23:08:00,72.4,69.0,29.90,SW,221,2.0,5.0,89,0.00,,,0.17,Wunderground v.1.15,2013-06-10 03:08:00,
2013-06-09 23:10:00,72.4,69.0,29.90,SSW,207,3.0,4.0,89,0.00,,,0.17,Wunderground v.1.15,2013-06-10 03:10:00,
2013-06-09 23:11:00,72.4,69.0,29.90,SSW,207,2.0,5.0,89,0.00,,,0.17,Wunderground v.1.15,2013-06-10 03:11:00,
2013-06-09 23:12:00,72.5,69.1,29.91,SSW,207,3.0,5.0,89,0.00,,,0.17,Wunderground v.1.15,2013-06-10 03:12:00,
2013-06-09 23:14:00,72.5,69.1,29.91,SSW,206,0.0,5.0,89,0.00,,,0.17,Wunderground v.1.15,2013-06-10 03:14:00,
2013-06-09 23:15:00,72.5,69.1,29.91,SSW,207,3.0,5.0,89,0.00,,,0.17,Wunderground v.1.15,2013-06-10 03:15:00,
2013-06-09 23:16:00,72.5,69.1,29.91,SSW,206,2.0,5.0,89,0.00,,,0.17,Wunderground v.1.15,2013-06-10 03:16:00,
2013-06-09 23:17:00,72.6,69.2,29.91,SSW,206,3.0,5.0,89,0.00,,,0.17,Wunderground v.1.15,2013-06-10 03:17:00,
2013-06-09 23:19:00,72.6,69.2,29.91,SSW,207,0.0,5.0,89,0.00,,,0.17,Wunderground v.1.15,2013-06-10 03:19:00,
2013-06-09 23:21:00,72.6,69.2,29.91,SSW,207,0.0,2.0,89,0.00,,,0.17,Wunderground v.1.15,2013-06-10 03:21:00,
2013-06-09 23:22:00,72.6,69.2,29.91,SSW,206,0.0,2.0,89,0.00,,,0.17,Wunderground v.1.15,2013-06-10 03:22:00,
2013-06-09 23:23:00,72.6,69.2,29.91,SSW,207,5.0,6.0,89,0.00,,,0.17,Wunderground v.1.15,2013-06-10 03:23:00,
2013-06-09 23:24:00,72.6,69.2,29.91,SSW,206,4.0,6.0,89,0.00,,,0.17,Wunderground v.1.15,2013-06-10 03:24:00,
2013-06-09 23:26:00,72.6,68.8,29.91,SSW,200,6.0,11.0,88,0.00,,,0.17,Wunderground v.1.15,2013-06-10 03:26:00,
2013-06-09 23:27:00,72.6,68.8,29.91,SSW,200,4.0,11.0,88,0.00,,,0.17,Wunderground v.1.15,2013-06-10 03:27:00,
2013-06-09 23:28:00,72.7,68.9,29.91,SSW,205,2.0,11.0,88,0.00,,,0.17,Wunderground v.1.15,2013-06-10 03:28:00,
2013-06-09 23:29:00,72.7,68.9,29.91,SSW,204,2.0,11.0,88,0.00,,,0.17,Wunderground v.1.15,2013-06-10 03:29:00,
2013-06-09 23:31:00,72.7,68.9,29.91,SSW,198,3.0,7.0,88,0.00,,,0.17,Wunderground v.1.15,2013-06-10 03:31:00,
2013-06-09 23:32:00,72.7,68.9,29.90,SSW,198,3.0,7.0,88,0.00,,,0.17,Wunderground v.1.15,2013-06-10 03:32:00,
2013-06-09 23:33:00,72.8,68.7,29.90,SSW,200,6.0,7.0,87,0.00,,,0.17,Wunderground v.1.15,2013-06-10 03:33:00,
2013-06-09 23:34:00,72.9,68.8,29.90,SSW,201,7.0,12.0,87,0.00,,,0.17,Wunderground v.1.15,2013-06-10 03:34:00,
2013-06-09 23:37:00,73.0,68.9,29.90,SSW,202,1.0,12.0,87,0.00,,,0.17,Wunderground v.1.15,2013-06-10 03:37:00,
2013-06-09 23:38:00,73.0,68.9,29.91,SSW,200,3.0,12.0,87,0.00,,,0.17,Wunderground v.1.15,2013-06-10 03:38:00,
2013-06-09 23:39:00,73.0,68.9,29.91,SSW,202,2.0,12.0,87,0.00,,,0.17,Wunderground v.1.15,2013-06-10 03:39:00,
2013-06-09 23:40:00,72.9,68.8,29.91,SSW,202,0.0,3.0,87,0.00,,,0.17,Wunderground v.1.15,2013-06-10 03:40:00,
2013-06-09 23:43:00,72.8,68.7,29.90,SSW,201,0.0,6.0,87,0.00,,,0.17,Wunderground v.1.15,2013-06-10 03:43:00,
2013-06-09 23:44:00,72.9,68.8,29.90,SSW,202,1.0,6.0,87,0.00,,,0.17,Wunderground v.1.15,2013-06-10 03:44:00,
2013-06-09 23:45:00,72.8,68.7,29.90,SSW,202,0.0,6.0,87,0.00,,,0.17,Wunderground v.1.15,2013-06-10 03:45:00,
2013-06-09 23:48:00,72.8,68.7,29.90,SSW,202,3.0,6.0,87,0.00,,,0.17,Wunderground v.1.15,2013-06-10 03:48:00,
2013-06-09 23:49:00,72.8,68.7,29.90,SSW,202,4.0,6.0,87,0.00,,,0.17,Wunderground v.1.15,2013-06-10 03:49:00,
2013-06-09 23:50:00,72.7,68.6,29.90,SSW,202,0.0,2.0,87,0.00,,,0.17,Wunderground v.1.15,2013-06-10 03:50:00,
2013-06-09 23:53:00,72.7,68.9,29.90,SSW,192,1.0,10.0,88,0.00,,,0.17,Wunderground v.1.15,2013-06-10 03:53:00,
2013-06-09 23:54:00,72.6,68.8,29.90,SSW,192,0.0,10.0,88,0.00,,,0.17,Wunderground v.1.15,2013-06-10 03:54:00,
2013-06-09 23:55:00,72.6,68.8,29.90,South,191,0.0,10.0,88,0.00,,,0.17,Wunderground v.1.15,2013-06-10 03:55:00,
2013-06-09 23:58:00,72.5,68.7,29.90,SSW,192,2.0,10.0,88,0.00,,,0.17,Wunderground v.1.15,2013-06-10 03:58:00,
2013-06-09 23:59:00,72.4,68.6,29.90,SSW,192,0.0,10.0,88,0.00,,,0.17,Wunderground v.1.15,2013-06-10 03:59:00,